T10BNORTH Weather Reports


time (UTC)temp
F
wind
direction
speed
knots
gust
knots
rain 1hr
in
rain 24hr
in
rain mn
in
humidity
%
barometer
mb
20260510231107 55 333 0.9 5.2 0.00 0.04 0.02 68 1011.4
20260510231002 55 333 0.9 5.2 0.00 0.04 0.02 68 1011.4
20260510230903 55 333 0.9 5.2 0.00 0.04 0.02 64 1011.3
20260510230803 56 260 0.9 5.2 0.00 0.04 0.02 69 1011.3
20260510230559 56 229 0.9 5.2 0.00 0.04 0.02 62 1011.2
20260510230458 56 228 0.0 5.2 0.00 0.04 0.02 62 1011.2
20260510230357 56 305 0.0 3.5 0.00 0.04 0.02 62 1011.2
20260510230257 56 305 0.0 3.5 0.00 0.04 0.02 64 1011.2
20260510230053 56 5 0.0 2.6 0.00 0.04 0.02 64 1011.2
20260510225953 56 5 0.0 2.6 0.00 0.04 0.02 67 1011.1
20260510225853 57 5 0.0 2.6 0.00 0.04 0.02 66 1011.1
20260510225817 57 5 0.9 2.6 0.00 0.04 0.02 65 1011.2
20260510225756 57 5 0.9 2.6 0.00 0.04 0.02 63 1011.1
20260510225537 57 5 0.9 5.2 0.00 0.04 0.02 64 1011.1
20260510225438 57 5 0.9 7.0 0.00 0.04 0.02 63 1011.1
20260510225338 57 5 1.7 7.0 0.00 0.04 0.02 61 1011.0
20260510225306 57 327 1.7 8.7 0.00 0.04 0.02 62 1011.0
20260510225242 57 336 1.7 8.7 0.00 0.04 0.02 58 1011.0
20260510225035 57 336 1.7 8.7 0.00 0.04 0.02 59 1010.9
20260510224936 57 290 1.7 8.7 0.00 0.04 0.02 60 1010.9
20260510224835 57 290 1.7 8.7 0.00 0.04 0.02 58 1010.9
20260510224735 57 245 1.7 8.7 0.00 0.04 0.02 58 1010.9
20260510224526 57 5 1.7 8.7 0.00 0.04 0.02 59 1010.8
20260510224425 57 289 1.7 8.7 0.00 0.04 0.02 58 1010.9
20260510224327 57 221 1.7 8.7 0.00 0.04 0.02 60 1010.8
20260510224224 58 0 1.7 5.2 0.00 0.04 0.02 62 1010.9
20260510224015 58 5 1.7 7.0 0.00 0.04 0.02 59 1010.8
20260510223916 58 9 1.7 7.0 0.00 0.04 0.02 58 1010.7
20260510223815 58 213 1.7 7.0 0.00 0.04 0.02 58 1010.7
20260510223714 58 202 2.6 8.7 0.00 0.04 0.02 58 1010.7
20260510223509 58 220 2.6 8.7 0.00 0.05 0.02 57 1010.8
20260510223409 58 38 2.6 8.7 0.00 0.05 0.02 60 1010.7
20260510223309 58 77 1.7 8.7 0.00 0.05 0.02 59 1010.7
20260510223210 58 170 1.7 8.7 0.00 0.05 0.02 60 1010.7
20260510223005 58 205 1.7 8.7 0.00 0.05 0.02 57 1010.7
20260510222902 58 310 1.7 8.7 0.00 0.05 0.02 57 1010.6
20260510222804 58 288 1.7 8.7 0.00 0.05 0.02 57 1010.6
20260510222703 58 87 1.7 6.1 0.00 0.05 0.02 58 1010.6
20260510222451 58 22 1.7 6.1 0.00 0.05 0.02 58 1010.6
20260510222350 58 60 1.7 6.1 0.00 0.05 0.02 58 1010.6
20260510222252 58 0 1.7 6.1 0.00 0.05 0.02 59 1010.6
20260510222152 58 319 1.7 6.1 0.00 0.05 0.02 58 1010.5
20260510221946 58 311 1.7 6.1 0.00 0.05 0.02 58 1010.6
20260510221842 58 193 1.7 6.1 0.00 0.06 0.02 58 1010.6
20260510221743 58 200 1.7 6.1 0.00 0.06 0.02 58 1010.5
20260510221645 58 181 1.7 6.1 0.00 0.06 0.02 58 1010.5
20260510221439 58 166 1.7 10.4 0.00 0.06 0.02 59 1010.5
20260510221337 58 33 2.6 10.4 0.00 0.06 0.02 59 1010.5
20260510221238 58 207 2.6 10.4 0.00 0.06 0.02 58 1010.5
20260510221205 58 79 2.6 10.4 0.00 0.06 0.02 59 1010.5
20260510221142 58 130 2.6 10.4 0.00 0.06 0.02 59 1010.5
20260510220929 58 344 2.6 10.4 0.00 0.06 0.02 59 1010.5
20260510220826 58 350 2.6 10.4 0.00 0.06 0.02 58 1010.5
20260510220728 58 247 2.6 10.4 0.00 0.06 0.02 58 1010.5
20260510220627 58 302 2.6 10.4 0.00 0.06 0.02 59 1010.5
20260510220425 58 240 2.6 7.8 0.00 0.06 0.02 57 1010.5
20260510220325 59 154 2.6 7.8 0.00 0.06 0.02 60 1010.5
20260510220226 59 73 2.6 7.0 0.00 0.07 0.02 58 1010.4
20260510220122 59 211 2.6 7.0 0.00 0.07 0.02 58 1010.4
20260510215922 59 17 1.7 7.0 0.00 0.07 0.02 60 1010.5
20260510215819 59 128 1.7 7.0 0.00 0.07 0.02 58 1010.4
20260510215717 59 28 2.6 7.0 0.00 0.07 0.02 59 1010.4
20260510215616 59 102 2.6 7.8 0.00 0.07 0.02 60 1010.4
20260510215404 59 30 2.6 7.8 0.00 0.07 0.02 58 1010.5
20260510215306 59 32 2.6 7.8 0.00 0.07 0.02 58 1010.4
20260510215202 59 5 2.6 8.7 0.00 0.07 0.02 58 1010.4
20260510215104 59 202 2.6 8.7 0.00 0.07 0.02 59 1010.3
20260510214857 59 27 2.6 8.7 0.00 0.07 0.02 58 1010.3
20260510214756 59 256 2.6 8.7 0.00 0.07 0.02 58 1010.3
20260510214656 59 338 1.7 8.7 0.00 0.07 0.02 58 1010.3
20260510214555 59 240 1.7 8.7 0.00 0.07 0.02 60 1010.4
20260510214353 59 322 2.6 8.7 0.00 0.07 0.02 59 1010.3
20260510214253 59 323 2.6 8.7 0.00 0.08 0.02 59 1010.3
20260510214153 59 292 2.6 10.4 0.00 0.08 0.02 59 1010.3
20260510214053 59 33 2.6 10.4 0.00 0.08 0.02 59 1010.3
20260510213841 59 347 2.6 10.4 0.00 0.08 0.02 60 1010.3
20260510213741 59 288 2.6 10.4 0.00 0.08 0.02 60 1010.2
20260510213641 59 63 3.5 10.4 0.00 0.08 0.02 62 1010.3
20260510213542 59 331 2.6 10.4 0.00 0.08 0.02 61 1010.3
20260510213334 59 311 2.6 10.4 0.00 0.08 0.02 61 1010.3
20260510213309 59 32 2.6 8.7 0.00 0.08 0.02 61 1010.3
20260510213133 59 96 2.6 7.8 0.00 0.08 0.02 61 1010.2
20260510213059 59 50 2.6 7.8 0.00 0.08 0.02 61 1010.2
20260510213038 59 15 2.6 7.8 0.00 0.08 0.02 62 1010.2
20260510212827 59 18 2.6 9.6 0.00 0.08 0.02 63 1010.2
20260510212728 59 355 3.5 9.6 0.00 0.08 0.02 63 1010.2
20260510212628 59 0 2.6 9.6 0.00 0.08 0.02 63 1010.3
20260510212553 59 81 3.5 9.6 0.00 0.08 0.02 63 1010.3
20260510212532 59 323 2.6 9.6 0.00 0.09 0.02 63 1010.4
20260510212313 59 111 2.6 9.6 0.00 0.09 0.02 63 1010.4
20260510212212 59 46 3.5 9.6 0.00 0.09 0.02 64 1010.4
20260510212114 59 88 3.5 9.6 0.00 0.09 0.02 63 1010.4
20260510212040 59 289 2.6 9.6 0.00 0.09 0.02 64 1010.4
20260510212018 59 34 2.6 9.6 0.00 0.09 0.02 65 1010.3
20260510211808 59 65 2.6 7.0 0.00 0.09 0.02 65 1010.4
20260510211706 59 52 2.6 7.0 0.00 0.09 0.02 64 1010.4
20260510211608 59 70 2.6 7.0 0.00 0.09 0.02 64 1010.4
20260510211509 59 296 2.6 7.8 0.00 0.09 0.02 65 1010.3
20260510211304 59 34 2.6 7.8 0.00 0.09 0.02 64 1010.3
20260510211200 59 120 2.6 7.8 0.00 0.09 0.02 64 1010.3
20260510211101 59 189 3.5 7.8 0.00 0.09 0.02 64 1010.2
20260510211001 59 309 3.5 9.6 0.00 0.09 0.02 65 1010.2
20260510210901 59 331 3.5 9.6 0.00 0.09 0.02 64 1010.3
20260510210754 59 309 3.5 12.2 0.00 0.09 0.02 66 1010.2
20260510210650 59 104 3.5 12.2 0.00 0.09 0.02 64 1010.2
20260510210552 59 351 3.5 12.2 0.00 0.09 0.02 64 1010.0
20260510210519 59 32 3.5 12.2 0.00 0.10 0.02 65 1010.0
20260510210352 59 252 3.5 12.2 0.00 0.10 0.02 64 1009.9
20260510210246 59 109 3.5 12.2 0.00 0.10 0.02 63 1010.0
20260510210146 59 204 4.3 12.2 0.00 0.10 0.02 64 1010.0
20260510210045 59 5 3.5 12.2 0.00 0.10 0.02 64 1009.9
20260510205946 59 10 3.5 12.2 0.00 0.10 0.02 67 1010.0
20260510205851 59 330 3.5 12.2 0.00 0.10 0.02 65 1009.9
20260510205743 59 184 3.5 11.3 0.00 0.10 0.02 66 1009.9
20260510205642 59 319 3.5 11.3 0.00 0.10 0.02 65 1009.9
20260510205542 59 215 3.5 11.3 0.00 0.10 0.02 67 1010.0
20260510205442 59 74 2.6 11.3 0.00 0.10 0.02 68 1009.9
20260510205340 59 22 2.6 11.3 0.00 0.10 0.02 68 1009.9
20260510205226 59 54 2.6 11.3 0.00 0.10 0.02 72 1009.8
20260510205125 59 69 2.6 8.7 0.00 0.10 0.02 71 1009.9
20260510205026 59 209 2.6 8.7 0.00 0.10 0.02 72 1009.9
20260510204924 59 85 2.6 8.7 0.00 0.10 0.02 72 1010.0
20260510204825 59 224 2.6 8.7 0.00 0.10 0.02 73 1010.0
20260510204720 59 65 2.6 8.7 0.00 0.10 0.02 73 1010.2
20260510204620 59 43 2.6 8.7 0.00 0.10 0.02 73 1010.0
20260510204520 58 40 2.6 9.6 0.00 0.10 0.02 74 1010.2
20260510204418 58 339 2.6 9.6 0.00 0.10 0.02 73 1010.2
20260510204320 58 98 3.5 9.6 0.00 0.11 0.02 73 1010.0
20260510204218 58 340 3.5 9.6 0.00 0.11 0.02 74 1010.0
20260510204113 58 105 3.5 9.6 0.00 0.11 0.02 73 1010.2
20260510204014 58 191 3.5 9.6 0.00 0.11 0.02 73 1010.2
20260510203912 58 10 3.5 9.6 0.00 0.11 0.02 73 1010.0
20260510203814 58 143 3.5 9.6 0.00 0.11 0.02 73 1010.2
20260510203703 58 123 3.5 9.6 0.00 0.11 0.02 72 1010.0
20260510203603 59 336 3.5 9.6 0.00 0.11 0.02 72 1010.2
20260510203504 59 306 3.5 9.6 0.00 0.11 0.02 72 1010.0
20260510203407 59 292 3.5 9.6 0.00 0.11 0.02 71 1010.0
20260510203303 59 144 3.5 9.6 0.00 0.11 0.02 70 1010.2
20260510203156 59 311 2.6 8.7 0.00 0.11 0.02 73 1010.0
20260510203058 59 209 2.6 8.7 0.00 0.11 0.02 74 1010.0
20260510202958 59 293 2.6 8.7 0.00 0.11 0.02 73 1010.2
20260510202857 59 22 2.6 8.7 0.00 0.11 0.02 74 1010.4
20260510202757 60 140 2.6 8.7 0.00 0.11 0.02 74 1010.3
20260510202653 60 9 2.6 8.7 0.00 0.11 0.02 73 1010.2
20260510202550 60 200 2.6 8.7 0.00 0.11 0.02 74 1010.3
20260510202452 60 348 3.5 8.7 0.00 0.11 0.02 73 1010.2
20260510202350 59 211 3.5 13.0 0.00 0.11 0.02 74 1010.2
20260510202252 59 350 3.5 13.0 0.00 0.11 0.02 75 1010.3
20260510202140 59 211 3.5 13.0 0.00 0.11 0.02 73 1010.2
20260510202042 59 11 3.5 13.0 0.00 0.12 0.02 73 1010.2
20260510201940 59 300 3.5 13.0 0.00 0.12 0.02 73 1010.2
20260510201838 59 274 3.5 13.0 0.00 0.12 0.02 74 1010.3
20260510201738 59 213 3.5 13.0 0.00 0.12 0.02 73 1010.2
20260510201631 59 267 3.5 13.0 0.00 0.12 0.02 75 1010.2
20260510201532 59 39 3.5 13.0 0.00 0.12 0.02 73 1010.2
20260510201507 59 196 3.5 13.0 0.00 0.12 0.02 73 1010.2
20260510201332 59 254 3.5 9.6 0.00 0.12 0.02 75 1010.2
20260510201231 59 148 3.5 9.6 0.00 0.12 0.02 76 1010.2
20260510201127 59 157 3.5 9.6 0.00 0.12 0.02 76 1010.3
20260510201025 59 216 3.5 9.6 0.00 0.12 0.02 77 1010.2
20260510200926 59 334 3.5 9.6 0.00 0.12 0.02 77 1010.3
20260510200824 59 117 2.6 8.7 0.00 0.12 0.02 76 1010.3
20260510200726 59 291 2.6 8.7 0.00 0.12 0.02 76 1010.3
20260510200616 59 285 2.6 8.7 0.00 0.12 0.02 78 1010.3
20260510200514 59 32 1.7 8.7 0.00 0.12 0.02 78 1010.3
20260510200417 59 347 1.7 8.7 0.00 0.12 0.02 78 1010.4
20260510200315 59 42 1.7 8.7 0.00 0.12 0.02 79 1010.4
20260510200215 58 9 1.7 10.4 0.00 0.12 0.02 79 1010.4
20260510200113 58 113 1.7 10.4 0.00 0.12 0.02 79 1010.4
20260510200012 58 48 1.7 10.4 0.00 0.12 0.02 80 1010.3
20260510195926 58 284 1.7 10.4 0.00 0.12 0.02 79 1010.4
20260510195811 58 33 1.7 10.4 0.00 0.12 0.02 79 1010.4
20260510195709 58 300 2.6 10.4 0.00 0.12 0.02 79 1010.4
20260510195602 58 291 2.6 10.4 0.00 0.12 0.02 79 1010.4
20260510195504 58 311 2.6 10.4 0.00 0.12 0.02 79 1010.4
20260510195403 58 350 2.6 10.4 0.00 0.12 0.02 79 1010.4
20260510195306 59 320 2.6 10.4 0.00 0.13 0.02 79 1010.3
20260510195204 59 344 2.6 8.7 0.00 0.13 0.02 80 1010.4
20260510195050 59 0 2.6 8.7 0.00 0.13 0.02 79 1010.3
20260510194949 59 262 2.6 8.7 0.00 0.13 0.02 79 1010.4
20260510194750 59 112 2.6 8.7 0.00 0.13 0.02 80 1010.4
20260510194649 59 146 2.6 8.7 0.00 0.13 0.02 80 1010.4
20260510194544 59 269 2.6 8.7 0.00 0.13 0.02 80 1010.4
20260510194442 59 191 2.6 8.7 0.00 0.13 0.02 80 1010.4
20260510194342 59 229 2.6 8.7 0.00 0.13 0.02 80 1010.4
20260510194242 59 137 1.7 8.7 0.00 0.13 0.02 81 1010.4
20260510194143 59 150 1.7 7.8 0.00 0.13 0.02 82 1010.4
20260510194038 59 98 2.6 7.0 0.00 0.13 0.02 81 1010.4
20260510193939 58 150 2.6 8.7 0.00 0.14 0.02 81 1010.4
20260510193838 59 337 2.6 8.7 0.00 0.14 0.02 81 1010.5
20260510193740 59 291 2.6 8.7 0.00 0.14 0.02 81 1010.5
20260510193638 59 159 2.6 8.7 0.00 0.14 0.02 81 1010.4
20260510193529 58 304 2.6 8.7 0.00 0.14 0.02 82 1010.4
20260510193428 58 252 2.6 8.7 0.00 0.14 0.02 83 1010.4
20260510193329 58 50 2.6 8.7 0.00 0.14 0.02 83 1010.4
20260510193229 58 288 3.5 8.7 0.00 0.14 0.02 84 1010.3
20260510193127 58 18 2.6 8.7 0.00 0.14 0.02 82 1010.3
20260510193023 58 259 2.6 8.7 0.00 0.15 0.02 82 1010.4
20260510192923 58 230 2.6 7.8 0.00 0.15 0.02 83 1010.4
20260510192823 58 136 2.6 7.8 0.00 0.15 0.02 82 1010.4
20260510192725 58 255 2.6 7.8 0.00 0.15 0.02 83 1010.3
20260510192623 58 129 2.6 7.8 0.00 0.15 0.02 82 1010.3
20260510192523 58 217 1.7 7.8 0.00 0.16 0.02 82 1010.3
20260510192500 58 238 1.7 7.8 0.00 0.16 0.02 83 1010.4
20260510192324 58 73 1.7 7.8 0.00 0.16 0.02 83 1010.4
20260510192224 58 161 1.7 7.8 0.00 0.16 0.02 84 1010.4
20260510192123 58 193 0.9 7.8 0.00 0.16 0.02 84 1010.4
20260510192025 58 163 0.9 7.8 0.00 0.16 0.02 83 1010.4
20260510191925 58 169 0.9 7.0 0.00 0.16 0.02 85 1010.4
20260510191819 57 348 0.9 7.0 0.00 0.17 0.02 86 1010.4
20260510191719 57 141 0.9 7.0 0.00 0.17 0.02 85 1010.5
20260510191619 57 110 0.0 5.2 0.00 0.17 0.02 86 1010.4
20260510191518 57 43 0.0 4.3 0.00 0.18 0.02 86 1010.4
20260510191418 57 309 0.9 4.3 0.00 0.18 0.02 87 1010.5
20260510191318 57 334 0.9 7.0 0.00 0.18 0.02 89 1010.5
20260510191215 57 15 0.9 7.0 0.00 0.18 0.02 87 1010.5
20260510191115 57 113 0.9 7.0 0.00 0.19 0.02 86 1010.5
20260510191019 56 167 1.7 7.8 0.00 0.19 0.02 88 1010.5
20260510190958 56 114 1.7 7.8 0.00 0.19 0.02 90 1010.6
20260510190808 56 132 1.7 7.8 0.00 0.19 0.02 89 1010.6
20260510190705 56 184 1.7 7.8 0.00 0.19 0.02 90 1010.6
20260510190605 56 154 1.7 7.8 0.00 0.19 0.02 91 1010.6
20260510190505 55 128 1.7 7.8 0.00 0.19 0.02 91 1010.7
20260510190406 55 123 1.7 7.8 0.00 0.20 0.02 91 1010.6
20260510190204 55 26 1.7 7.8 0.00 0.20 0.02 92 1010.7
20260510190103 55 128 1.7 7.8 0.00 0.20 0.02 93 1010.7
20260510190002 54 134 1.7 5.2 0.00 0.20 0.02 92 1010.8
20260510185903 54 188 1.7 5.2 0.00 0.21 0.02 92 1010.7
20260510185801 54 309 0.9 5.2 0.00 0.21 0.02 93 1010.7
20260510185701 54 128 1.7 5.2 0.00 0.21 0.02 94 1010.7
20260510185603 53 134 1.7 5.2 0.00 0.21 0.02 96 1010.8
20260510185459 53 104 1.7 5.2 0.00 0.21 0.02 95 1010.8
20260510185401 53 57 0.9 5.2 0.00 0.22 0.02 95 1010.7
20260510185259 53 95 0.9 5.2 0.00 0.22 0.02 97 1010.8
20260510185200 53 121 1.7 5.2 0.00 0.22 0.02 96 1010.8
20260510185056 53 73 1.7 5.2 0.00 0.22 0.02 96 1010.8
20260510184956 53 116 1.7 5.2 0.00 0.22 0.02 96 1010.8
20260510184855 53 116 1.7 5.2 0.00 0.22 0.02 97 1010.8
20260510184754 53 117 0.9 5.2 0.00 0.22 0.02 97 1010.8
20260510184655 53 118 0.9 5.2 0.00 0.23 0.02 97 1010.8
20260510184556 53 123 0.9 5.2 0.00 0.23 0.02 97 1010.9
20260510184457 53 121 0.9 5.2 0.00 0.23 0.02 97 1010.9
20260510184251 53 126 0.9 5.2 0.00 0.23 0.02 97 1010.9
20260510184151 52 132 0.9 5.2 0.00 0.24 0.02 97 1010.9
20260510184053 52 104 0.0 3.5 0.00 0.24 0.02 97 1010.8
20260510183952 52 97 0.0 3.5 0.00 0.24 0.02 97 1010.9
20260510183751 52 101 0.0 2.6 0.00 0.24 0.02 98 1010.9
20260510183651 52 101 0.0 2.6 0.00 0.24 0.02 97 1010.9
20260510183553 52 101 0.0 2.6 0.00 0.24 0.02 98 1010.9
20260510183452 52 103 0.0 2.6 0.00 0.24 0.02 98 1010.9
20260510183352 52 105 0.0 2.6 0.00 0.25 0.02 98 1010.9
20260510183252 52 105 0.0 2.6 0.00 0.25 0.02 98 1011.0
20260510183152 52 105 0.0 2.6 0.00 0.25 0.02 98 1011.1
20260510183052 52 105 0.0 2.6 0.00 0.25 0.02 98 1011.0
20260510182952 52 105 0.0 2.6 0.00 0.25 0.02 98 1011.0
20260510182853 52 105 0.9 2.6 0.00 0.25 0.02 98 1011.1
20260510182752 52 105 0.9 2.6 0.00 0.26 0.02 98 1011.1
20260510182653 52 105 0.9 2.6 0.00 0.26 0.02 98 1011.1
20260510182550 51 105 0.9 2.6 0.00 0.26 0.02 99 1011.1
20260510182451 51 105 0.9 2.6 0.00 0.26 0.02 99 1011.1
20260510182252 51 109 0.9 2.6 0.00 0.26 0.02 99 1011.1
20260510182150 51 109 0.9 2.6 0.00 0.26 0.02 99 1011.2
20260510182051 51 109 0.9 2.6 0.00 0.27 0.02 99 1011.1
20260510181952 51 109 0.9 2.6 0.00 0.27 0.02 99 1011.1
20260510181751 51 108 0.9 2.6 0.00 0.27 0.02 99 1011.2
20260510181651 51 114 0.0 2.6 0.00 0.27 0.02 100 1011.2
20260510181551 51 113 0.0 2.6 0.00 0.27 0.02 100 1011.2
20260510181453 51 113 0.0 2.6 0.00 0.27 0.02 100 1011.1
20260510181252 51 107 0.0 2.6 0.00 0.28 0.02 100 1011.1
20260510181151 51 112 0.0 2.6 0.00 0.28 0.02 100 1011.2
20260510181051 51 118 0.0 2.6 0.00 0.28 0.02 100 1011.1
20260510180951 51 90 0.0 1.7 0.00 0.28 0.02 100 1011.1
20260510180751 50 89 0.0 3.5 0.00 0.28 0.02 99 1011.2
20260510180652 50 89 0.0 3.5 0.00 0.29 0.02 99 1011.1
20260510180551 50 90 0.0 4.3 0.00 0.29 0.02 99 1011.2
20260510180452 50 90 0.9 4.3 0.00 0.29 0.02 99 1011.2
20260510180242 50 90 0.9 5.2 0.00 0.29 0.02 99 1011.1
20260510180143 50 90 0.9 5.2 0.00 0.30 0.02 99 1011.1
20260510180043 50 92 0.9 5.2 0.00 0.30 0.02 99 1011.1
20260510175943 50 92 0.9 5.2 0.00 0.30 0.02 99 1011.1
20260510175846 50 92 0.9 5.2 0.00 0.30 0.02 98 1011.1
20260510175743 50 78 0.9 5.2 0.00 0.30 0.02 98 1011.1
20260510175645 50 74 0.9 5.2 0.00 0.30 0.02 98 1011.1
20260510175543 51 100 0.9 5.2 0.00 0.31 0.02 99 1011.1
20260510175444 51 73 0.9 5.2 0.00 0.31 0.02 99 1011.1
20260510175242 51 143 0.9 3.5 0.00 0.31 0.02 99 1011.2
20260510175143 51 115 0.9 3.5 0.00 0.31 0.02 99 1011.1
20260510175043 51 93 0.9 3.5 0.00 0.31 0.02 99 1011.1
20260510174944 51 92 0.9 3.5 0.00 0.31 0.02 99 1011.1
20260510174743 51 107 0.0 3.5 0.00 0.32 0.02 99 1011.1
20260510174643 51 94 0.0 3.5 0.00 0.32 0.02 99 1011.1
20260510174544 51 96 0.0 1.7 0.00 0.32 0.02 99 1011.1
20260510174505 51 93 0.0 1.7 0.00 0.32 0.02 99 1011.1
20260510174445 51 101 0.0 1.7 0.00 0.32 0.02 99 1011.1
20260510174243 51 103 0.0 1.7 0.00 0.32 0.02 99 1011.1
20260510174144 51 171 0.0 0.9 0.00 0.32 0.02 99 1011.2
20260510174042 51 196 0.0 1.7 0.00 0.32 0.02 99 1011.2
20260510173943 51 196 0.0 1.7 0.00 0.33 0.02 99 1011.2
20260510173742 51 196 0.0 1.7 0.00 0.33 0.02 99 1011.3
20260510173642 51 196 0.0 1.7 0.00 0.33 0.02 99 1011.3
20260510173537 51 196 0.0 1.7 0.00 0.33 0.02 99 1011.3
20260510173502 51 196 0.0 1.7 0.00 0.33 0.02 99 1011.2
20260510173439 51 195 0.0 1.7 0.00 0.33 0.02 100 1011.2
20260510173230 51 156 0.0 3.5 0.00 0.33 0.02 100 1011.2
20260510173129 51 156 0.0 3.5 0.00 0.33 0.02 100 1011.3
20260510173029 51 157 0.9 3.5 0.00 0.33 0.02 100 1011.3
20260510172926 51 157 0.9 3.5 0.00 0.33 0.02 100 1011.3
20260510172720 51 157 0.9 3.5 0.00 0.34 0.02 100 1011.2
20260510172619 51 157 0.9 3.5 0.00 0.34 0.02 100 1011.2
20260510172520 51 157 0.9 3.5 0.00 0.34 0.02 100 1011.2
20260510172444 51 157 0.9 3.5 0.00 0.34 0.02 100 1011.2
20260510172423 51 159 0.9 3.5 0.00 0.34 0.02 100 1011.3
20260510172214 51 135 0.0 3.5 0.00 0.34 0.02 100 1011.3
20260510172112 51 107 0.0 3.5 0.00 0.34 0.02 100 1011.2
20260510172013 51 98 0.0 1.7 0.00 0.34 0.02 100 1011.2
20260510171937 51 98 0.0 1.7 0.00 0.34 0.02 100 1011.2
20260510171917 51 98 0.0 0.0 0.00 0.34 0.02 100 1011.3
20260510171700 50 98 0.0 0.0 0.00 0.34 0.02 100 1011.2
20260510171600 50 101 0.0 0.0 0.00 0.34 0.02 100 1011.2
20260510171458 50 101 0.0 0.0 0.00 0.34 0.02 100 1011.2
20260510171358 50 102 0.0 0.0 0.00 0.34 0.02 100 1011.2
20260510171156 50 103 0.0 0.0 0.00 0.34 0.02 100 1011.2
20260510171057 50 103 0.0 0.0 0.00 0.34 0.02 100 1011.2
20260510170954 49 103 0.0 0.0 0.00 0.34 0.02 100 1011.2
20260510170919 49 103 0.0 0.0 0.00 0.34 0.02 100 1011.2
20260510170857 49 103 0.0 0.0 0.00 0.34 0.02 100 1011.2
20260510170648 49 103 0.0 0.0 0.00 0.34 0.02 100 1011.2
20260510170550 49 103 0.0 0.0 0.00 0.34 0.02 100 1011.2
20260510170447 49 103 0.0 0.0 0.00 0.34 0.02 100 1011.2
20260510170349 49 103 0.0 0.0 0.00 0.34 0.02 100 1011.2
20260510170139 49 103 0.0 0.0 0.00 0.34 0.02 100 1011.2
20260510170040 49 103 0.0 0.0 0.00 0.34 0.02 100 1011.2
20260510165941 49 103 0.0 0.0 0.00 0.34 0.02 100 1011.2
20260510165839 49 103 0.0 0.0 0.00 0.34 0.02 100 1011.2
20260510165633 49 103 0.0 0.0 0.00 0.34 0.02 100 1011.2
20260510165532 49 103 0.0 2.6 0.00 0.34 0.02 100 1011.1
20260510165430 49 103 0.0 2.6 0.00 0.34 0.02 100 1011.1
20260510165329 49 102 0.0 2.6 0.00 0.34 0.02 100 1011.1
20260510165131 48 103 0.0 2.6 0.00 0.34 0.02 100 1011.1
20260510165029 48 102 0.0 2.6 0.00 0.34 0.02 100 1011.1
20260510164928 48 103 0.0 2.6 0.00 0.34 0.02 100 1011.1
20260510164849 48 103 0.0 2.6 0.00 0.34 0.02 100 1011.1
20260510164828 48 103 0.0 2.6 0.00 0.34 0.02 100 1011.2
20260510164609 48 102 0.0 2.6 0.00 0.34 0.02 100 1011.3
20260510164511 48 313 0.0 0.0 0.00 0.34 0.02 100 1011.3
20260510164410 48 313 0.0 0.0 0.00 0.34 0.02 100 1011.4
20260510164311 48 313 0.0 0.0 0.00 0.34 0.02 100 1011.3
20260510164107 48 313 0.0 0.0 0.00 0.34 0.02 100 1011.4
20260510164009 48 313 0.0 0.0 0.00 0.34 0.02 100 1011.4
20260510163909 48 313 0.0 0.0 0.00 0.35 0.02 100 1011.3
20260510163833 48 313 0.0 0.0 0.00 0.35 0.02 100 1011.3
20260510163809 48 313 0.0 0.0 0.00 0.35 0.02 100 1011.3
20260510163604 48 313 0.0 0.0 0.00 0.35 0.02 100 1011.3
20260510163502 48 313 0.0 0.0 0.00 0.35 0.02 100 1011.4
20260510163403 48 313 0.0 0.0 0.00 0.35 0.02 100 1011.3
20260510163301 48 313 0.0 0.0 0.00 0.35 0.02 100 1011.3
20260510163052 48 313 0.0 0.0 0.00 0.35 0.02 100 1011.3
20260510162953 48 313 0.0 0.0 0.00 0.35 0.02 100 1011.3
20260510162853 48 313 0.0 0.0 0.00 0.35 0.02 100 1011.3
20260510162751 48 313 0.0 0.0 0.00 0.35 0.02 100 1011.2
20260510162548 48 313 0.0 0.0 0.00 0.36 0.02 100 1011.3
20260510162446 48 313 0.0 0.0 0.00 0.36 0.02 100 1011.3
20260510162347 48 313 0.0 0.0 0.00 0.36 0.02 100 1011.3
20260510162245 48 313 0.0 0.0 0.00 0.36 0.02 100 1011.3
20260510162043 48 313 0.0 0.0 0.00 0.36 0.02 100 1011.3
20260510161941 48 313 0.0 0.0 0.00 0.36 0.02 100 1011.3
20260510161840 48 313 0.0 0.0 0.00 0.36 0.02 100 1011.4
20260510161739 48 313 0.0 0.0 0.00 0.36 0.02 100 1011.3
20260510161527 48 313 0.0 0.9 0.00 0.36 0.02 100 1011.3
20260510161426 48 313 0.0 0.9 0.00 0.36 0.02 100 1011.4
20260510161325 48 313 0.0 0.9 0.00 0.36 0.02 100 1011.3
20260510161248 48 313 0.0 0.9 0.00 0.37 0.02 100 1011.3
20260510161227 48 313 0.0 0.9 0.00 0.37 0.02 100 1011.3
20260510161023 48 313 0.0 0.9 0.00 0.37 0.02 100 1011.3
20260510160920 48 313 0.0 0.9 0.00 0.37 0.02 100 1011.3
20260510160820 48 313 0.0 0.9 0.00 0.37 0.02 100 1011.4
20260510160719 48 313 0.0 0.9 0.00 0.37 0.02 100 1011.4
20260510160511 48 312 0.0 0.9 0.00 0.37 0.02 100 1011.4
20260510160409 48 312 0.0 0.9 0.00 0.37 0.02 100 1011.4
20260510160311 48 312 0.0 0.9 0.00 0.38 0.02 100 1011.4
20260510160236 48 312 0.0 0.9 0.00 0.38 0.02 100 1011.4
20260510160110 48 312 0.0 0.9 0.00 0.38 0.02 100 1011.3
20260510160004 48 312 0.0 0.9 0.00 0.38 0.02 100 1011.3
20260510155906 48 312 0.0 0.9 0.00 0.38 0.02 100 1011.3
20260510155804 48 312 0.0 2.6 0.00 0.38 0.02 100 1011.3
20260510155703 48 312 0.0 2.6 0.00 0.38 0.02 100 1011.3
20260510155601 48 312 0.0 2.6 0.00 0.38 0.02 100 1011.4
20260510155456 47 312 0.0 2.6 0.00 0.38 0.02 100 1011.4
20260510155356 47 312 0.0 2.6 0.00 0.38 0.02 100 1011.3
20260510155257 47 312 0.0 2.6 0.00 0.38 0.02 100 1011.3
20260510155158 47 312 0.0 2.6 0.00 0.38 0.02 100 1011.4
20260510155055 47 312 0.0 2.6 0.00 0.38 0.02 100 1011.4
20260510154954 47 312 0.0 2.6 0.00 0.38 0.02 100 1011.4
20260510154851 47 312 0.0 2.6 0.00 0.38 0.02 100 1011.4
20260510154752 47 318 0.0 1.7 0.00 0.38 0.02 100 1011.4
20260510154651 47 200 0.9 6.1 0.00 0.38 0.02 100 1011.3
20260510154548 47 200 0.9 6.1 0.00 0.38 0.02 100 1011.3
20260510154439 47 200 0.9 6.1 0.00 0.38 0.02 100 1011.2
20260510154338 47 148 0.9 6.1 0.00 0.38 0.02 100 1011.2
20260510154236 47 148 0.9 6.1 0.00 0.38 0.02 100 1011.1
20260510154137 47 148 0.9 6.1 0.00 0.38 0.02 100 1011.1
20260510154034 47 148 0.9 6.1 0.00 0.38 0.02 100 1011.1
20260510153931 47 149 0.9 6.1 0.00 0.38 0.02 100 1011.1
20260510153832 47 149 0.9 6.1 0.00 0.38 0.02 100 1011.0
20260510153733 47 146 0.9 6.1 0.00 0.38 0.02 100 1011.0
20260510153630 47 167 0.9 4.3 0.00 0.38 0.02 100 1010.9
20260510153529 47 167 1.7 4.3 0.00 0.38 0.02 100 1010.9
20260510153427 47 167 1.7 7.0 0.00 0.38 0.02 100 1010.9
20260510153327 47 177 1.7 7.0 0.00 0.38 0.02 100 1010.9
20260510153224 47 182 1.7 7.0 0.00 0.38 0.02 100 1010.9
20260510153125 47 134 1.7 7.0 0.00 0.38 0.02 100 1010.9
20260510153022 47 130 1.7 7.0 0.00 0.38 0.02 100 1010.9
20260510152912 47 128 1.7 7.0 0.00 0.38 0.02 100 1010.8
20260510152812 47 190 2.6 7.0 0.00 0.38 0.02 100 1010.8
20260510152713 47 186 2.6 7.0 0.00 0.38 0.02 100 1010.8
20260510152613 47 140 2.6 7.0 0.00 0.38 0.02 100 1010.8
20260510152513 47 165 2.6 6.1 0.00 0.38 0.02 100 1010.8
20260510152407 47 165 2.6 6.1 0.00 0.38 0.02 100 1010.8
20260510152308 47 138 2.6 6.1 0.00 0.38 0.02 100 1010.8
20260510152234 47 143 2.6 6.1 0.00 0.38 0.02 100 1010.8
20260510152212 47 161 2.6 6.1 0.00 0.38 0.02 100 1010.8
20260510152007 47 175 2.6 6.1 0.00 0.38 0.02 100 1010.8
20260510151901 47 157 2.6 6.1 0.00 0.38 0.02 100 1010.8
20260510151800 47 176 2.6 6.1 0.00 0.38 0.02 100 1010.8
20260510151701 47 146 2.6 6.1 0.00 0.38 0.02 100 1010.8
20260510151601 47 134 2.6 6.1 0.00 0.38 0.02 100 1010.8
20260510151501 48 149 2.6 6.1 0.00 0.38 0.02 100 1010.9
20260510151351 48 171 2.6 6.1 0.00 0.38 0.02 100 1010.9
20260510151250 48 180 1.7 6.1 0.00 0.38 0.02 100 1010.9
20260510151151 48 159 1.7 5.2 0.00 0.38 0.02 100 1010.8
20260510151050 48 152 1.7 5.2 0.00 0.38 0.02 100 1010.8
20260510150950 48 149 1.7 5.2 0.00 0.38 0.02 100 1010.8
20260510150845 48 188 1.7 5.2 0.00 0.38 0.02 100 1010.9
20260510150744 48 188 0.9 5.2 0.00 0.38 0.02 100 1010.9
20260510150644 48 130 0.9 3.5 0.00 0.38 0.02 100 1010.9
20260510150546 48 131 0.9 3.5 0.00 0.38 0.02 100 1010.9
20260510150444 48 105 0.9 3.5 0.00 0.38 0.02 100 1010.9
20260510150339 47 92 0.9 2.6 0.00 0.38 0.02 100 1010.9
20260510150239 47 92 0.9 2.6 0.00 0.38 0.02 100 1010.9
20260510150139 47 89 0.9 2.6 0.00 0.38 0.02 100 1010.9
20260510150038 47 113 0.0 2.6 0.00 0.38 0.02 100 1010.9
20260510145938 47 110 0.0 2.6 0.00 0.38 0.02 100 1010.9
20260510145831 47 110 0.0 2.6 0.00 0.38 0.02 100 1010.9
20260510145727 47 161 0.0 0.0 0.00 0.38 0.02 100 1010.9
20260510145627 47 148 0.0 0.0 0.00 0.38 0.02 100 1010.9
20260510145525 47 148 0.0 0.0 0.00 0.38 0.02 100 1011.0
20260510145425 47 148 0.0 0.0 0.00 0.38 0.02 100 1010.9
20260510145323 47 148 0.0 0.0 0.00 0.38 0.02 100 1010.9
20260510145230 47 148 0.0 0.0 0.00 0.38 0.02 100 1011.0
20260510145209 47 148 0.0 0.0 0.00 0.38 0.02 100 1011.0
20260510145021 47 148 0.0 0.9 0.00 0.38 0.02 100 1011.1
20260510144918 47 148 0.0 0.9 0.00 0.38 0.02 100 1011.0
20260510144816 47 148 0.0 0.9 0.00 0.38 0.02 100 1011.0
20260510144716 47 148 0.0 0.9 0.00 0.38 0.02 100 1011.0
20260510144616 47 148 0.0 0.9 0.00 0.38 0.02 100 1011.0
20260510144515 47 148 0.0 0.9 0.00 0.38 0.02 100 1011.0
20260510144412 47 148 0.0 0.9 0.00 0.38 0.02 100 1010.9
20260510144305 47 148 0.0 0.9 0.00 0.38 0.02 100 1010.9
20260510144105 47 148 0.0 0.9 0.00 0.38 0.02 100 1010.9
20260510144005 47 148 0.0 0.0 0.00 0.38 0.02 100 1010.9
20260510143903 47 148 0.0 1.7 0.00 0.38 0.02 100 1010.9
20260510143801 47 148 0.0 3.5 0.00 0.38 0.02 100 1010.9
20260510143701 47 148 0.0 3.5 0.00 0.38 0.02 100 1010.9
20260510143558 46 148 0.0 3.5 0.00 0.38 0.02 100 1010.9
20260510143458 47 148 0.0 3.5 0.00 0.38 0.02 100 1010.9
20260510143357 47 148 0.0 3.5 0.00 0.38 0.02 100 1011.0
20260510143251 47 148 0.0 3.5 0.00 0.38 0.02 100 1011.1
20260510143150 46 148 0.0 3.5 0.00 0.38 0.02 100 1011.0
20260510142949 47 148 0.0 3.5 0.00 0.38 0.02 100 1011.0
20260510142851 46 155 0.0 3.5 0.00 0.38 0.02 100 1011.0
20260510142743 46 182 0.0 0.9 0.00 0.38 0.02 100 1011.0
20260510142639 46 182 0.0 1.7 0.00 0.38 0.02 100 1011.1
20260510142541 46 182 0.0 1.7 0.00 0.38 0.02 100 1011.1
20260510142439 46 182 0.0 1.7 0.00 0.38 0.02 100 1011.0
20260510142338 46 182 0.0 1.7 0.00 0.38 0.02 100 1011.1
20260510142237 46 182 0.0 1.7 0.00 0.38 0.02 100 1011.0
20260510142139 46 182 0.0 1.7 0.00 0.38 0.02 100 1011.0
20260510142038 46 182 0.0 2.6 0.00 0.38 0.02 100 1011.0
20260510141936 46 182 0.0 2.6 0.00 0.38 0.02 100 1011.0
20260510141837 46 182 0.0 2.6 0.00 0.38 0.02 100 1011.0
20260510141736 46 186 0.0 2.6 0.00 0.38 0.02 100 1011.1
20260510141701 46 187 0.0 2.6 0.00 0.38 0.02 100 1011.0
20260510141536 46 187 0.0 2.6 0.00 0.38 0.02 100 1011.0
20260510141433 46 187 0.0 2.6 0.00 0.38 0.02 100 1011.1
20260510141333 46 187 0.0 2.6 0.00 0.38 0.02 100 1011.0
20260510141231 46 187 0.0 2.6 0.00 0.38 0.02 100 1011.1
20260510141130 46 186 0.0 2.6 0.00 0.38 0.02 100 1011.1
20260510141031 46 125 0.0 2.6 0.00 0.38 0.02 100 1011.1
20260510140928 46 125 0.0 2.6 0.00 0.38 0.02 100 1011.0
20260510140827 46 125 0.0 2.6 0.00 0.38 0.02 100 1011.0
20260510140725 46 125 0.0 1.7 0.00 0.38 0.02 100 1011.1
20260510140625 46 125 0.0 1.7 0.00 0.38 0.02 100 1011.1
20260510140524 46 125 0.0 0.9 0.00 0.38 0.02 100 1011.1
20260510140423 46 125 0.0 0.9 0.00 0.38 0.02 100 1011.1
20260510140321 46 125 0.0 0.9 0.00 0.38 0.02 100 1011.1
20260510140220 46 125 0.0 0.9 0.00 0.38 0.02 100 1011.1
20260510140118 46 125 0.0 0.9 0.00 0.38 0.02 100 1011.1
20260510140018 46 125 0.0 0.9 0.00 0.38 0.02 100 1011.1
20260510135917 46 125 0.0 0.9 0.00 0.38 0.02 100 1011.1
20260510135815 46 125 0.0 0.9 0.00 0.38 0.02 100 1011.1
20260510135713 46 125 0.0 0.9 0.00 0.38 0.02 100 1011.1
20260510135613 46 125 0.0 0.0 0.00 0.38 0.02 100 1011.1
20260510135514 46 125 0.0 0.0 0.00 0.38 0.02 100 1011.0
20260510135414 45 125 0.0 0.0 0.00 0.38 0.02 100 1011.0
20260510135312 45 125 0.0 0.0 0.00 0.38 0.02 100 1011.0
20260510135212 45 125 0.0 0.0 0.00 0.38 0.02 100 1010.9
20260510135112 45 125 0.0 0.0 0.00 0.38 0.02 100 1010.9
20260510135009 45 125 0.0 0.0 0.00 0.38 0.02 100 1010.9
20260510134909 45 125 0.0 0.0 0.00 0.38 0.02 100 1010.9
20260510134805 45 125 0.0 0.0 0.00 0.38 0.02 100 1010.9
20260510134707 45 125 0.0 0.0 0.00 0.38 0.02 100 1010.9
20260510134607 45 125 0.0 0.9 0.00 0.38 0.02 100 1010.9
20260510134507 45 125 0.0 0.9 0.00 0.38 0.02 100 1010.9
20260510134407 45 125 0.0 0.9 0.00 0.38 0.02 100 1010.9
20260510134305 45 125 0.0 0.9 0.00 0.38 0.02 100 1010.8
20260510134203 45 125 0.0 0.9 0.00 0.38 0.02 100 1010.8
20260510134104 45 125 0.0 0.9 0.00 0.38 0.02 100 1010.8
20260510134004 45 125 0.0 0.9 0.00 0.38 0.02 100 1010.8
20260510133901 45 125 0.0 0.9 0.00 0.38 0.02 100 1010.8
20260510133759 45 125 0.0 0.9 0.00 0.38 0.02 100 1010.8
20260510133659 45 125 0.0 0.9 0.00 0.38 0.02 100 1010.8
20260510133559 45 125 0.0 0.9 0.00 0.38 0.02 100 1010.8
20260510133456 45 125 0.0 0.9 0.00 0.38 0.02 100 1010.8
20260510133354 45 125 0.0 0.0 0.00 0.38 0.02 100 1010.8
20260510133253 45 125 0.0 0.0 0.00 0.38 0.02 100 1010.8
20260510133153 45 125 0.0 1.7 0.00 0.38 0.02 100 1010.8
20260510133051 45 125 0.0 1.7 0.00 0.38 0.02 100 1010.8
20260510132949 45 125 0.0 1.7 0.00 0.38 0.02 100 1010.8
20260510132849 45 125 0.0 1.7 0.00 0.38 0.02 100 1010.8
20260510132747 45 125 0.0 1.7 0.00 0.38 0.02 100 1010.7
20260510132645 45 125 0.0 1.7 0.00 0.38 0.02 100 1010.7
20260510132546 45 125 0.0 1.7 0.00 0.38 0.02 100 1010.7
20260510132445 45 125 0.0 1.7 0.00 0.38 0.02 100 1010.6
20260510132342 45 125 0.0 1.7 0.00 0.38 0.02 100 1010.6
20260510132240 45 126 0.0 1.7 0.00 0.38 0.02 100 1010.6
20260510132139 45 141 0.0 0.0 0.00 0.38 0.02 100 1010.6
20260510132039 45 141 0.0 0.0 0.00 0.38 0.02 100 1010.6
20260510131938 45 141 0.0 0.0 0.00 0.38 0.02 100 1010.7
20260510131837 45 141 0.0 0.0 0.00 0.38 0.02 100 1010.7
20260510131736 45 141 0.0 0.0 0.00 0.38 0.02 100 1010.8
20260510131635 45 141 0.0 0.0 0.00 0.38 0.02 100 1010.9
20260510131532 45 142 0.0 0.0 0.00 0.38 0.02 100 1010.9
20260510131433 45 142 0.0 0.0 0.00 0.38 0.02 100 1011.0
20260510131330 45 142 0.0 0.0 0.00 0.38 0.02 100 1011.1
20260510131226 45 142 0.0 0.0 0.00 0.38 0.02 100 1011.1
20260510131137 45 142 0.0 0.0 0.00 0.38 0.02 100 1011.1
20260510131116 45 142 0.0 0.0 0.00 0.38 0.02 100 1011.2
20260510130922 45 142 0.0 0.0 0.00 0.38 0.02 100 1011.2
20260510130821 45 142 0.0 0.0 0.00 0.38 0.02 100 1011.2
20260510130715 45 142 0.0 0.0 0.00 0.38 0.02 100 1011.2
20260510130614 45 142 0.0 0.0 0.00 0.38 0.02 100 1011.1
20260510130415 45 142 0.0 0.0 0.00 0.38 0.02 100 1011.1
20260510130314 45 142 0.0 0.0 0.00 0.38 0.02 100 1011.1
20260510130209 45 142 0.0 0.0 0.00 0.38 0.02 100 1011.1
20260510130108 45 142 0.0 0.0 0.00 0.38 0.02 100 1011.1
20260510130007 45 142 0.0 0.0 0.00 0.38 0.02 100 1011.0
20260510125909 45 178 0.0 0.0 0.00 0.38 0.02 100 1011.0
20260510125808 45 178 0.0 0.0 0.00 0.38 0.02 100 1011.1
20260510125703 45 178 0.0 0.0 0.00 0.38 0.02 100 1011.1
20260510125602 45 178 0.0 0.0 0.00 0.38 0.02 100 1011.0
20260510125501 45 178 0.0 0.0 0.00 0.38 0.02 100 1011.1
20260510125401 45 178 0.0 0.0 0.00 0.38 0.02 100 1011.1
20260510125257 45 178 0.0 0.0 0.00 0.38 0.02 100 1011.1
20260510125159 45 178 0.0 0.0 0.00 0.38 0.02 100 1011.0
20260510125055 45 178 0.0 0.0 0.00 0.38 0.02 100 1011.0
20260510124955 44 178 0.0 0.0 0.00 0.38 0.02 100 1011.0
20260510124853 44 178 0.0 0.0 0.00 0.38 0.02 100 1011.0
20260510124754 44 178 0.0 0.0 0.00 0.38 0.02 100 1010.9
20260510124651 44 178 0.0 0.0 0.00 0.38 0.02 100 1010.9
20260510124448 44 178 0.0 0.0 0.00 0.38 0.02 100 1010.9
20260510124348 44 178 0.0 0.0 0.00 0.38 0.02 100 1011.0
20260510124249 44 178 0.0 0.0 0.00 0.38 0.02 100 1011.0
20260510124147 44 178 0.0 0.0 0.00 0.38 0.02 100 1011.0
20260510124043 44 178 0.0 0.0 0.00 0.38 0.02 100 1011.0
20260510123945 44 78 0.0 0.0 0.00 0.38 0.02 100 1011.0
20260510123842 44 78 0.0 0.0 0.00 0.38 0.02 100 1011.0
20260510123741 44 78 0.0 0.0 0.00 0.38 0.02 100 1010.9
20260510123640 44 78 0.0 0.0 0.00 0.38 0.02 100 1010.9
20260510123537 44 78 0.0 0.0 0.00 0.38 0.02 100 1010.9
20260510123439 44 78 0.0 0.0 0.00 0.38 0.02 100 1010.9
20260510123335 44 78 0.0 0.0 0.00 0.38 0.02 100 1011.0
20260510123235 44 78 0.0 0.0 0.00 0.38 0.02 100 1010.9
20260510123135 44 78 0.0 0.0 0.00 0.38 0.02 100 1010.9
20260510123031 44 78 0.0 0.0 0.00 0.38 0.02 100 1010.9
20260510122932 44 78 0.0 0.0 0.00 0.38 0.02 100 1010.9
20260510122830 44 78 0.0 0.0 0.00 0.38 0.02 100 1010.9
20260510122729 44 78 0.0 0.0 0.00 0.38 0.02 100 1010.9
20260510122634 44 78 0.0 0.0 0.00 0.38 0.02 100 1010.9
20260510122613 44 78 0.0 0.0 0.00 0.38 0.02 100 1010.9
20260510122425 44 78 0.0 0.0 0.00 0.38 0.02 100 1010.9
20260510122326 44 78 0.0 0.0 0.00 0.38 0.02 100 1010.9
20260510122227 44 78 0.0 0.0 0.00 0.38 0.02 100 1010.9
20260510122126 44 78 0.0 0.0 0.00 0.38 0.02 100 1010.9
20260510122025 44 78 0.0 0.0 0.00 0.38 0.02 100 1010.9
20260510121921 44 78 0.0 0.0 0.00 0.38 0.02 100 1010.9
20260510121822 44 78 0.0 0.0 0.00 0.38 0.02 100 1010.8
20260510121721 44 78 0.0 0.0 0.00 0.38 0.02 100 1010.8
20260510121620 44 78 0.0 0.0 0.00 0.38 0.02 100 1010.8
20260510121519 44 78 0.0 0.0 0.00 0.38 0.02 100 1010.7
20260510121417 44 78 0.0 0.0 0.00 0.38 0.02 100 1010.7
20260510121317 44 78 0.0 0.0 0.00 0.38 0.02 100 1010.7
20260510121215 44 78 0.0 0.0 0.00 0.38 0.02 100 1010.7
20260510121113 44 78 0.0 0.0 0.00 0.38 0.02 100 1010.5
20260510121013 43 78 0.0 0.0 0.00 0.38 0.02 100 1010.5
20260510120914 43 78 0.0 0.0 0.00 0.38 0.02 100 1010.5
20260510120814 43 78 0.0 0.0 0.00 0.38 0.02 100 1010.6
20260510120713 43 78 0.0 0.0 0.00 0.38 0.02 100 1010.6
20260510120613 43 78 0.0 0.0 0.00 0.38 0.02 100 1010.6
20260510120514 43 78 0.0 0.0 0.00 0.38 0.02 100 1010.6
20260510120413 43 78 0.0 0.0 0.00 0.38 0.02 100 1010.6
20260510120313 43 78 0.0 0.0 0.00 0.38 0.02 100 1010.7
20260510120214 43 78 0.0 0.0 0.00 0.38 0.02 100 1010.7
20260510120113 43 78 0.0 0.0 0.00 0.38 0.02 100 1010.8
20260510120013 43 78 0.0 0.0 0.00 0.38 0.02 100 1010.8
20260510115913 43 78 0.0 0.0 0.00 0.38 0.02 100 1010.9
20260510115814 43 78 0.0 0.0 0.00 0.38 0.02 100 1010.9
20260510115713 43 78 0.0 0.0 0.00 0.38 0.02 100 1010.9
20260510115615 43 78 0.0 0.0 0.00 0.38 0.02 100 1010.9
20260510115513 43 78 0.0 0.0 0.00 0.38 0.02 100 1010.9
20260510115415 43 78 0.0 0.0 0.00 0.38 0.02 100 1010.8
20260510115313 43 78 0.0 0.0 0.00 0.38 0.02 100 1010.8
20260510115213 43 78 0.0 0.0 0.00 0.38 0.02 100 1010.8
20260510115113 43 78 0.0 0.0 0.00 0.38 0.02 100 1010.7
20260510115013 43 78 0.0 0.0 0.00 0.38 0.02 100 1010.7
20260510114914 43 78 0.0 0.0 0.00 0.38 0.02 100 1010.6
20260510114810 43 78 0.0 0.0 0.00 0.38 0.02 100 1010.6
20260510114710 43 78 0.0 0.0 0.00 0.38 0.02 100 1010.5
20260510114609 43 78 0.0 0.0 0.00 0.38 0.02 100 1010.5
20260510114509 43 78 0.0 0.0 0.00 0.38 0.02 100 1010.5
20260510114409 43 78 0.0 0.0 0.00 0.38 0.02 100 1010.5
20260510114311 43 78 0.0 0.0 0.00 0.38 0.02 100 1010.5
20260510114210 43 78 0.0 0.0 0.00 0.38 0.02 100 1010.6
20260510114109 43 78 0.0 0.0 0.00 0.38 0.02 100 1010.6
20260510114010 43 78 0.0 0.0 0.00 0.38 0.02 100 1010.6
20260510113909 43 78 0.0 0.0 0.00 0.38 0.02 100 1010.7
20260510113811 43 78 0.0 0.0 0.00 0.38 0.02 100 1010.7
20260510113709 43 78 0.0 0.0 0.00 0.38 0.02 100 1010.8
20260510113609 43 78 0.0 0.0 0.00 0.38 0.02 100 1010.7
20260510113510 43 78 0.0 0.0 0.00 0.38 0.02 100 1010.7
20260510113411 43 78 0.0 0.0 0.00 0.38 0.02 100 1010.8
20260510113309 43 78 0.0 0.0 0.00 0.38 0.02 100 1010.7
20260510113211 43 78 0.0 0.0 0.00 0.38 0.02 100 1010.7
20260510113124 43 78 0.0 0.0 0.00 0.38 0.02 100 1010.6
20260510113104 43 78 0.0 0.0 0.00 0.38 0.02 100 1010.7
20260510112905 43 78 0.0 0.0 0.00 0.38 0.02 100 1010.7
20260510112807 43 78 0.0 0.0 0.00 0.38 0.02 100 1010.6
20260510112705 43 78 0.0 0.0 0.00 0.38 0.02 100 1010.6
20260510112625 43 78 0.0 0.0 0.00 0.38 0.02 100 1010.6
20260510112604 43 78 0.0 0.0 0.00 0.38 0.02 100 1010.6
20260510112406 43 78 0.0 0.0 0.00 0.38 0.02 100 1010.6
20260510112306 43 78 0.0 0.0 0.00 0.38 0.02 100 1010.6
20260510112201 43 78 0.0 0.0 0.00 0.38 0.02 100 1010.5
20260510112101 43 78 0.0 0.0 0.00 0.38 0.02 100 1010.6
20260510112001 43 78 0.0 0.0 0.00 0.38 0.02 100 1010.5
20260510111900 43 78 0.0 0.0 0.00 0.38 0.02 100 1010.5
20260510111802 43 78 0.0 0.0 0.00 0.38 0.02 100 1010.5
20260510111700 43 78 0.0 0.0 0.00 0.38 0.02 100 1010.5
20260510111601 43 78 0.0 0.0 0.00 0.38 0.02 100 1010.5
20260510111402 43 78 0.0 0.0 0.00 0.38 0.02 100 1010.5
20260510111301 43 78 0.0 0.0 0.00 0.38 0.02 100 1010.5
20260510111203 43 78 0.0 0.0 0.00 0.38 0.02 100 1010.4
20260510111101 43 78 0.0 0.0 0.00 0.38 0.02 100 1010.5
20260510110903 43 78 0.0 0.0 0.00 0.38 0.02 100 1010.5
20260510110802 43 78 0.0 0.0 0.00 0.38 0.02 100 1010.5
20260510110702 43 78 0.0 0.0 0.00 0.38 0.02 100 1010.5
20260510110603 43 78 0.0 0.0 0.00 0.38 0.02 100 1010.4
20260510110402 43 78 0.0 0.0 0.00 0.38 0.02 100 1010.4
20260510110302 43 78 0.0 0.0 0.00 0.38 0.02 100 1010.4
20260510110203 43 78 0.0 0.0 0.00 0.38 0.02 100 1010.4
20260510105901 43 78 0.0 0.0 0.00 0.38 0.02 100 1010.3
20260510105802 43 78 0.0 0.0 0.00 0.38 0.02 100 1010.3
20260510105703 43 78 0.0 0.0 0.00 0.38 0.02 100 1010.3
20260510105557 43 78 0.0 0.0 0.00 0.38 0.02 100 1010.3
20260510105358 43 78 0.0 0.0 0.00 0.38 0.02 100 1010.0
20260510105257 43 78 0.0 0.0 0.00 0.38 0.02 100 1010.0
20260510105158 43 78 0.0 0.0 0.00 0.38 0.02 100 1010.0
20260510105059 43 78 0.0 0.0 0.00 0.38 0.02 100 1010.0
20260510104958 43 78 0.0 0.0 0.00 0.38 0.02 100 1010.0
20260510104853 43 78 0.0 0.0 0.00 0.38 0.02 100 1010.0
20260510104755 43 78 0.0 0.0 0.00 0.38 0.02 100 1010.0
20260510104653 43 78 0.0 0.0 0.00 0.38 0.02 100 1010.0
20260510104615 43 78 0.0 0.0 0.00 0.38 0.02 100 1009.9
20260510104553 43 78 0.0 0.0 0.00 0.38 0.02 100 1009.9
20260510104351 43 78 0.0 0.0 0.00 0.38 0.02 100 1009.9
20260510104248 43 78 0.0 0.0 0.00 0.38 0.02 100 1009.9
20260510104147 43 78 0.0 0.0 0.00 0.38 0.02 100 1009.9
20260510104045 43 78 0.0 0.0 0.00 0.38 0.02 100 1009.9
20260510103837 43 78 0.0 0.0 0.00 0.38 0.02 100 1009.7
20260510103738 43 78 0.0 0.0 0.00 0.38 0.02 100 1009.7
20260510103638 43 78 0.0 0.0 0.00 0.38 0.02 100 1009.6
20260510103535 43 78 0.0 0.0 0.00 0.38 0.02 100 1009.6
20260510103333 43 78 0.0 0.0 0.00 0.38 0.02 100 1009.6
20260510103232 43 78 0.0 0.0 0.00 0.38 0.02 100 1009.7
20260510103133 43 78 0.0 0.0 0.00 0.38 0.02 100 1009.6
20260510103030 43 78 0.0 0.0 0.00 0.38 0.02 100 1009.6
20260510102827 42 78 0.0 0.0 0.00 0.38 0.02 100 1009.5
20260510102726 42 78 0.0 0.0 0.00 0.38 0.02 100 1009.5
20260510102625 42 78 0.0 0.0 0.00 0.38 0.02 100 1009.6
20260510102547 42 78 0.0 0.0 0.00 0.38 0.02 100 1009.6
20260510102526 42 78 0.0 0.0 0.00 0.38 0.02 100 1009.6
20260510102310 42 78 0.0 0.0 0.00 0.38 0.02 100 1009.5
20260510102207 42 78 0.0 0.0 0.00 0.38 0.02 100 1009.4
20260510102108 42 78 0.0 0.0 0.00 0.38 0.02 100 1009.3
20260510102008 42 78 0.0 0.0 0.00 0.38 0.02 100 1009.3
20260510101800 42 78 0.0 0.0 0.00 0.38 0.02 100 1009.3
20260510101701 42 78 0.0 0.0 0.00 0.38 0.02 100 1009.3
20260510101601 42 78 0.0 0.0 0.00 0.38 0.02 100 1009.3
20260510101526 42 78 0.0 0.0 0.00 0.38 0.02 100 1009.3
20260510101506 42 78 0.0 0.0 0.00 0.38 0.02 100 1009.3
20260510101302 42 78 0.0 0.0 0.00 0.38 0.02 100 1009.3
20260510101200 42 78 0.0 0.0 0.00 0.38 0.02 100 1009.4
20260510101059 42 78 0.0 0.0 0.00 0.38 0.02 100 1009.3
20260510100958 42 78 0.0 0.0 0.00 0.38 0.02 100 1009.4
20260510100748 42 78 0.0 0.0 0.00 0.38 0.02 100 1009.4
20260510100644 42 78 0.0 0.0 0.00 0.38 0.02 100 1009.4
20260510100545 42 78 0.0 0.0 0.00 0.38 0.02 100 1009.4
20260510100446 42 78 0.0 0.0 0.00 0.38 0.02 100 1009.4
20260510100244 42 78 0.0 0.0 0.00 0.38 0.02 100 1009.4
20260510100144 42 78 0.0 0.0 0.00 0.38 0.02 100 1009.3
20260510100044 42 78 0.0 0.0 0.00 0.38 0.02 100 1009.3
20260510095941 42 78 0.0 0.0 0.00 0.38 0.02 100 1009.3
20260510095739 42 78 0.0 0.0 0.00 0.38 0.02 100 1009.4
20260510095639 42 78 0.0 0.0 0.00 0.38 0.02 100 1009.4
20260510095535 42 78 0.0 0.0 0.00 0.38 0.02 100 1009.4
20260510095436 42 78 0.0 0.0 0.00 0.38 0.02 100 1009.4
20260510095224 42 78 0.0 0.0 0.00 0.38 0.02 100 1009.4
20260510095124 42 78 0.0 0.0 0.00 0.38 0.02 100 1009.4
20260510095023 42 78 0.0 0.0 0.00 0.38 0.02 100 1009.4
20260510094922 42 78 0.0 0.0 0.00 0.38 0.02 100 1009.4
20260510094715 42 78 0.0 0.0 0.00 0.38 0.02 100 1009.3
20260510094616 42 78 0.0 0.0 0.00 0.38 0.02 100 1009.2
20260510094515 42 78 0.0 0.0 0.00 0.38 0.02 100 1009.3
20260510094416 42 78 0.0 0.0 0.00 0.38 0.02 100 1009.2
20260510094209 42 78 0.0 0.0 0.00 0.38 0.02 100 1009.0
20260510094107 42 78 0.0 0.0 0.00 0.38 0.02 100 1009.0
20260510094008 42 78 0.0 0.0 0.00 0.38 0.02 100 1009.0
20260510093907 42 78 0.0 0.0 0.00 0.38 0.02 100 1009.1
20260510093702 42 78 0.0 0.0 0.00 0.38 0.02 100 1009.2
20260510093602 42 78 0.0 0.0 0.00 0.38 0.02 100 1009.2
20260510093503 42 78 0.0 0.0 0.00 0.38 0.02 100 1009.3
20260510093400 42 78 0.0 0.0 0.00 0.38 0.02 100 1009.3
20260510093153 42 78 0.0 0.0 0.00 0.38 0.02 100 1009.2
20260510093052 42 78 0.0 0.0 0.00 0.38 0.02 100 1009.1
20260510092951 42 78 0.0 0.0 0.00 0.38 0.02 100 1009.1
20260510092851 42 78 0.0 0.0 0.00 0.38 0.02 100 1009.1
20260510092651 42 78 0.0 0.0 0.00 0.38 0.02 100 1009.1
20260510092550 42 78 0.0 0.0 0.00 0.38 0.02 100 1009.2
20260510092449 42 78 0.0 0.0 0.00 0.38 0.02 100 1009.2
20260510092348 42 78 0.0 0.0 0.00 0.38 0.02 100 1009.3
20260510092136 42 78 0.0 0.0 0.00 0.38 0.02 100 1009.2
20260510092035 42 78 0.0 0.0 0.00 0.38 0.02 100 1009.1
20260510091934 42 78 0.0 0.0 0.00 0.38 0.02 100 1009.1
20260510091833 42 78 0.0 0.0 0.00 0.38 0.02 100 1009.1
20260510091631 42 78 0.0 0.0 0.00 0.38 0.02 100 1009.3
20260510091529 42 78 0.0 0.0 0.01 0.38 0.02 100 1009.3
20260510091428 42 78 0.0 0.0 0.01 0.38 0.02 100 1009.3
20260510091326 42 78 0.0 0.0 0.01 0.38 0.02 100 1009.2
20260510091125 42 78 0.0 0.0 0.01 0.38 0.02 100 1009.2
20260510091024 42 78 0.0 0.0 0.01 0.38 0.02 100 1009.2
20260510090921 42 78 0.0 0.0 0.01 0.38 0.02 100 1009.2
20260510090822 42 78 0.0 0.0 0.01 0.38 0.02 100 1009.2
20260510090613 42 78 0.0 0.0 0.01 0.38 0.02 100 1009.2
20260510090514 42 78 0.0 0.0 0.01 0.38 0.02 100 1009.3
20260510090410 42 78 0.0 0.0 0.01 0.38 0.02 100 1009.3
20260510090311 42 78 0.0 0.0 0.01 0.38 0.02 100 1009.3
20260510090110 42 78 0.0 0.0 0.01 0.38 0.02 100 1009.3
20260510090007 42 78 0.0 0.0 0.01 0.38 0.02 100 1009.2
20260510085908 42 78 0.0 0.0 0.01 0.38 0.02 100 1009.3
20260510085806 42 78 0.0 0.0 0.01 0.38 0.02 100 1009.3
20260510085603 42 78 0.0 0.0 0.01 0.38 0.02 100 1009.3
20260510085502 42 78 0.0 0.0 0.01 0.38 0.02 100 1009.3
20260510085401 42 78 0.0 0.0 0.01 0.38 0.02 100 1009.3
20260510085300 42 78 0.0 0.0 0.01 0.38 0.02 100 1009.4
20260510085044 42 78 0.0 0.0 0.01 0.38 0.02 100 1009.4
20260510085022 42 78 0.0 0.0 0.01 0.38 0.02 100 1009.5
20260510084843 42 78 0.0 0.0 0.01 0.38 0.02 100 1009.5
20260510084808 42 78 0.0 0.0 0.01 0.38 0.02 100 1009.5
20260510084748 42 78 0.0 0.0 0.01 0.38 0.02 100 1009.5
20260510084544 42 78 0.0 0.0 0.01 0.38 0.02 100 1009.4
20260510084440 42 78 0.0 0.0 0.01 0.38 0.02 100 1009.5
20260510084342 42 78 0.0 0.0 0.01 0.38 0.02 100 1009.5
20260510084238 42 78 0.0 0.0 0.01 0.38 0.02 100 1009.5
20260510084036 42 78 0.0 0.0 0.01 0.38 0.02 100 1009.4
20260510083936 42 78 0.0 0.0 0.01 0.38 0.02 100 1009.4
20260510083835 42 78 0.0 0.0 0.01 0.38 0.02 100 1009.4
20260510083734 42 78 0.0 0.0 0.01 0.38 0.02 100 1009.5
20260510083527 42 78 0.0 0.0 0.01 0.38 0.02 100 1009.6
20260510083425 42 78 0.0 0.0 0.01 0.38 0.02 100 1009.6
20260510083326 42 78 0.0 0.0 0.01 0.38 0.02 100 1009.5
20260510083223 42 78 0.0 0.0 0.01 0.38 0.02 100 1009.5
20260510083022 42 78 0.0 0.0 0.01 0.38 0.02 100 1009.5
20260510082920 42 78 0.0 0.0 0.01 0.38 0.02 100 1009.5
20260510082819 42 78 0.0 0.0 0.01 0.38 0.02 100 1009.5
20260510082742 42 78 0.0 0.0 0.01 0.38 0.02 100 1009.5
20260510082720 42 78 0.0 0.0 0.01 0.38 0.02 100 1009.6
20260510082512 42 78 0.0 0.0 0.01 0.38 0.02 100 1009.5
20260510082409 42 78 0.0 0.0 0.01 0.38 0.02 100 1009.5
20260510082310 42 78 0.0 0.0 0.01 0.38 0.02 100 1009.5
20260510082211 42 78 0.0 0.0 0.01 0.38 0.02 100 1009.4
20260510082110 42 78 0.0 0.0 0.01 0.38 0.02 100 1009.4
20260510081959 42 78 0.0 0.0 0.01 0.38 0.02 100 1009.4
20260510081901 42 78 0.0 0.0 0.01 0.38 0.02 100 1009.4
20260510081800 42 78 0.0 0.0 0.02 0.38 0.02 100 1009.4
20260510081658 42 78 0.0 0.0 0.02 0.38 0.02 100 1009.4
20260510081556 42 78 0.0 0.0 0.01 0.37 0.01 100 1009.5
20260510081450 42 78 0.0 0.0 0.01 0.37 0.01 100 1009.4
20260510081350 42 78 0.0 0.0 0.01 0.37 0.01 100 1009.4
20260510081248 42 78 0.0 0.0 0.01 0.37 0.01 100 1009.4
20260510081149 42 78 0.0 0.0 0.01 0.37 0.01 100 1009.4
20260510081050 42 78 0.0 0.0 0.01 0.37 0.01 100 1009.4
20260510080949 42 78 0.0 0.0 0.01 0.37 0.01 100 1009.4
20260510080848 42 78 0.0 0.0 0.01 0.37 0.01 100 1009.4
20260510080746 42 78 0.0 0.0 0.01 0.37 0.01 100 1009.4
20260510080646 42 78 0.0 0.9 0.01 0.37 0.01 100 1009.3
20260510080543 42 78 0.0 0.9 0.01 0.37 0.01 100 1009.3
20260510080438 42 78 0.0 0.9 0.01 0.37 0.01 100 1009.3
20260510080336 42 78 0.0 0.9 0.01 0.37 0.01 100 1009.2
20260510080239 42 78 0.0 0.9 0.01 0.37 0.01 100 1009.2
20260510080135 42 78 0.0 0.9 0.01 0.37 0.01 100 1009.2
20260510080034 42 78 0.0 0.9 0.01 0.37 0.01 100 1009.2
20260510075934 42 78 0.0 0.9 0.01 0.37 0.01 100 1009.2
20260510075831 42 78 0.0 0.9 0.01 0.37 0.01 100 1009.2
20260510075732 42 78 0.0 0.9 0.01 0.37 0.01 100 1009.2
20260510075630 42 113 0.0 0.9 0.01 0.37 0.01 100 1009.2
20260510075528 42 113 0.0 0.0 0.01 0.37 0.01 100 1009.2
20260510075428 42 113 0.0 0.0 0.01 0.37 0.01 100 1009.2
20260510075326 42 113 0.0 0.0 0.01 0.37 0.01 100 1009.1
20260510075225 42 113 0.0 0.0 0.01 0.37 0.01 100 1009.2
20260510075021 42 113 0.0 0.0 0.01 0.37 0.01 100 1009.2
20260510074910 42 113 0.0 0.0 0.01 0.37 0.01 100 1009.2
20260510074811 42 113 0.0 0.0 0.01 0.37 0.01 100 1009.2
20260510074709 42 113 0.0 0.0 0.01 0.37 0.01 100 1009.2
20260510074507 42 121 0.0 0.0 0.01 0.37 0.01 100 1009.1
20260510074404 42 121 0.0 0.0 0.01 0.37 0.01 100 1009.3
20260510074304 42 121 0.0 0.0 0.01 0.37 0.01 100 1009.4
20260510074206 42 121 0.0 0.0 0.01 0.37 0.01 100 1009.6
20260510074102 42 121 0.0 0.0 0.01 0.37 0.01 100 1009.6
20260510074002 42 121 0.0 0.0 0.01 0.37 0.01 100 1009.7
20260510073901 42 121 0.0 0.0 0.01 0.37 0.01 100 1009.7
20260510073800 42 121 0.0 0.0 0.01 0.37 0.01 100 1009.8
20260510073659 42 121 0.0 0.0 0.01 0.37 0.01 100 1009.8
20260510073557 42 121 0.0 0.0 0.01 0.37 0.01 100 1009.9
20260510073455 42 121 0.0 0.0 0.01 0.37 0.01 100 1009.9
20260510073347 42 121 0.0 0.0 0.01 0.37 0.01 100 1009.9
20260510073246 42 121 0.0 0.0 0.01 0.37 0.01 100 1009.9
20260510073146 41 121 0.0 0.0 0.01 0.37 0.01 100 1009.8
20260510073046 41 121 0.0 0.0 0.01 0.37 0.01 100 1009.8
20260510072945 41 121 0.0 0.0 0.01 0.37 0.01 100 1009.8
20260510072845 41 121 0.0 0.0 0.01 0.37 0.01 100 1009.7
20260510072742 41 121 0.0 0.0 0.01 0.37 0.01 100 1009.7
20260510072644 41 121 0.0 0.0 0.01 0.37 0.01 100 1009.7
20260510072540 41 121 0.0 0.0 0.01 0.37 0.01 100 1009.7
20260510072440 41 121 0.0 0.0 0.01 0.37 0.01 100 1009.8
20260510072338 41 121 0.0 0.0 0.01 0.37 0.01 100 1009.8
20260510072238 41 121 0.0 0.0 0.01 0.37 0.01 100 1009.9
20260510072136 41 121 0.0 0.0 0.01 0.37 0.01 100 1009.9
20260510072036 41 121 0.0 0.0 0.01 0.37 0.01 100 1009.9
20260510071933 41 121 0.0 0.0 0.01 0.37 0.01 100 1010.0
20260510071823 41 121 0.0 0.0 0.01 0.37 0.01 100 1009.9
20260510071722 41 121 0.0 0.0 0.00 0.36 0.01 100 1009.9
20260510071622 41 121 0.0 0.0 0.00 0.36 0.00 100 1009.9
20260510071522 41 121 0.0 0.0 0.00 0.36 0.00 100 1009.9
20260510071419 41 121 0.0 0.0 0.00 0.36 0.00 100 1009.9
20260510071316 41 121 0.0 0.0 0.00 0.36 0.00 100 1009.9
20260510071229 41 121 0.0 0.0 0.00 0.36 0.00 100 1009.9
20260510071208 41 121 0.0 0.0 0.00 0.36 0.00 100 1009.9
20260510071015 41 121 0.0 0.0 0.00 0.36 0.00 100 1009.9
20260510070914 41 121 0.0 0.0 0.00 0.36 0.00 100 1009.8
20260510070810 41 121 0.0 0.0 0.00 0.36 0.00 100 1009.8
20260510070726 41 121 0.0 0.0 0.00 0.36 0.00 100 1009.7
20260510070705 41 121 0.0 0.0 0.00 0.36 0.00 100 1009.8
20260510070509 41 121 0.0 0.0 0.00 0.36 0.00 100 1009.8
20260510070408 41 121 0.0 0.0 0.00 0.36 0.00 100 1009.8
20260510070300 41 121 0.0 0.0 0.00 0.36 0.00 100 1009.8
20260510070224 41 121 0.0 0.0 0.00 0.36 0.00 100 1009.8
20260510070202 41 121 0.0 0.0 0.00 0.36 0.00 100 1009.8
20260510070000 41 121 0.0 0.0 0.00 0.36 0.00 100 1009.7
20260510065857 41 121 0.0 0.0 0.00 0.36 0.00 100 1009.8
20260510065758 41 121 0.0 0.0 0.00 0.36 0.00 100 1009.7
20260510065655 41 121 0.0 0.0 0.00 0.36 0.00 100 1009.7
20260510065453 41 121 0.0 0.0 0.00 0.36 0.00 100 1009.7
20260510065352 41 121 0.0 0.0 0.00 0.36 0.00 100 1009.8
20260510065247 41 121 0.0 0.0 0.00 0.36 0.00 100 1009.8
20260510065144 41 121 0.0 0.0 0.00 0.36 0.00 100 1009.8
20260510065046 41 121 0.0 0.0 0.00 0.36 0.00 100 1009.7
20260510064944 41 121 0.0 0.0 0.00 0.36 0.00 100 1009.7
20260510064923 41 121 0.0 0.0 0.00 0.36 0.00 100 1009.8
20260510064735 41 121 0.0 0.0 0.00 0.36 0.00 100 1009.8
20260510064706 41 121 0.0 0.0 0.00 0.36 0.00 100 1009.8
20260510064535 41 121 0.0 0.9 0.00 0.36 0.00 100 1009.9
20260510064434 41 121 0.0 0.9 0.00 0.36 0.00 100 1009.8
20260510064331 41 121 0.0 0.9 0.00 0.36 0.00 100 1009.8
20260510064226 41 121 0.0 0.9 0.00 0.36 0.00 100 1009.8
20260510064124 41 121 0.0 0.9 0.00 0.36 0.00 100 1009.7
20260510064025 41 121 0.0 0.9 0.00 0.36 0.00 100 1009.8
20260510063925 41 121 0.0 0.9 0.00 0.36 0.00 100 1009.8
20260510063826 41 121 0.0 0.9 0.00 0.36 0.00 100 1009.8
20260510063726 41 121 0.0 0.9 0.00 0.36 0.00 100 1009.8
20260510063622 41 121 0.0 0.0 0.00 0.36 0.00 100 1009.8
20260510063522 41 121 0.0 0.0 0.00 0.36 0.00 100 1009.8
20260510063422 41 121 0.0 0.0 0.00 0.36 0.00 100 1009.8
20260510063320 41 121 0.0 0.0 0.00 0.36 0.00 100 1009.8
20260510063210 41 121 0.0 0.0 0.00 0.36 0.00 100 1009.8
20260510063110 41 121 0.0 0.0 0.00 0.36 0.00 100 1009.8
20260510063012 41 121 0.0 0.0 0.00 0.36 0.00 100 1009.8
20260510062937 41 121 0.0 0.0 0.00 0.36 0.00 100 1009.8
20260510062809 41 121 0.0 0.0 0.00 0.36 0.00 100 1009.8
20260510062722 41 121 0.0 0.0 0.00 0.36 0.00 100 1009.8
20260510062700 41 121 0.0 0.0 0.00 0.36 0.00 100 1009.8
20260510062506 41 121 0.0 0.0 0.00 0.36 0.00 100 1009.8
20260510062434 41 121 0.0 0.0 0.00 0.36 0.00 100 1009.8
20260510062306 41 121 0.0 0.0 0.00 0.36 0.00 100 1009.7
20260510062219 41 121 0.0 0.0 0.00 0.36 0.00 100 1009.8
20260510062159 41 121 0.0 0.0 0.00 0.36 0.00 100 1009.7
20260510062001 41 121 0.0 0.0 0.00 0.36 0.00 100 1009.7
20260510061901 41 121 0.0 0.0 0.00 0.36 0.00 100 1009.7
20260510061802 41 121 0.0 0.0 0.00 0.36 0.00 100 1009.7
20260510061656 41 121 0.0 0.0 0.00 0.36 0.00 100 1009.7
20260510061454 41 121 0.0 0.0 0.00 0.36 0.00 100 1009.7
20260510061353 41 121 0.0 0.0 0.00 0.36 0.00 100 1009.7
20260510061253 41 121 0.0 0.0 0.00 0.36 0.00 100 1009.8
20260510061213 41 121 0.0 0.0 0.00 0.36 0.00 100 1009.7
20260510061154 41 121 0.0 0.0 0.00 0.36 0.00 100 1009.7
20260510060946 41 121 0.0 0.0 0.00 0.36 0.00 100 1009.7
20260510060848 41 121 0.0 0.0 0.00 0.36 0.00 100 1009.7
20260510060747 41 121 0.0 0.0 0.00 0.36 0.00 100 1009.7
20260510060648 41 121 0.0 0.0 0.00 0.36 0.00 100 1009.7
20260510060546 41 121 0.0 0.0 0.00 0.36 0.00 100 1009.7
20260510060447 41 121 0.0 0.0 0.00 0.36 0.00 100 1009.7
20260510060344 41 121 0.0 0.0 0.00 0.36 0.00 100 1009.7
20260510060244 41 121 0.0 0.0 0.00 0.36 0.00 100 1009.7
20260510060206 41 121 0.0 0.0 0.00 0.36 0.00 100 1009.7
20260510060040 41 121 0.0 0.0 0.00 0.36 0.00 100 1009.7
20260510055942 41 121 0.0 0.0 0.00 0.36 0.00 100 1009.6
20260510055838 41 121 0.0 0.0 0.00 0.36 0.00 100 1009.6
20260510055740 41 121 0.0 0.0 0.00 0.36 0.00 100 1009.7
20260510055636 41 121 0.0 0.0 0.00 0.36 0.00 100 1009.6
20260510055536 41 121 0.0 0.0 0.00 0.36 0.00 100 1009.6
20260510055434 41 121 0.0 0.0 0.00 0.36 0.00 100 1009.6
20260510055334 41 121 0.0 0.0 0.00 0.36 0.00 100 1009.7
20260510055231 41 121 0.0 0.0 0.00 0.36 0.00 100 1009.7
20260510055131 41 121 0.0 0.0 0.00 0.36 0.00 100 1009.7
20260510055029 41 121 0.0 0.0 0.00 0.36 0.00 100 1009.7
20260510054929 41 121 0.0 0.0 0.00 0.36 0.00 100 1009.7
20260510054827 41 121 0.0 0.0 0.00 0.36 0.00 100 1009.7
20260510054727 41 121 0.0 0.0 0.00 0.36 0.00 100 1009.7
20260510054626 41 121 0.0 0.0 0.00 0.36 0.00 100 1009.8
20260510054523 41 121 0.0 0.0 0.00 0.36 0.00 100 1009.8
20260510054422 41 121 0.0 0.0 0.00 0.36 0.00 100 1009.7
20260510054322 41 121 0.0 0.0 0.00 0.36 0.00 100 1009.7
20260510054120 41 121 0.0 0.0 0.00 0.36 0.00 100 1009.8
20260510054017 41 121 0.0 0.0 0.00 0.36 0.00 100 1009.9
20260510053913 41 121 0.0 0.0 0.00 0.36 0.00 100 1009.9
20260510053814 41 121 0.0 0.0 0.00 0.36 0.00 100 1009.9
20260510053713 41 121 0.0 0.0 0.00 0.36 0.00 100 1009.9
20260510053642 41 121 0.0 0.0 0.00 0.36 0.00 100 1010.0
20260510053511 41 121 0.0 0.0 0.00 0.36 0.00 100 1009.9
20260510053404 41 121 0.0 0.0 0.00 0.36 0.00 100 1010.0
20260510053305 41 121 0.0 0.0 0.00 0.36 0.00 100 1010.2
20260510053204 41 121 0.0 0.0 0.00 0.36 0.00 100 1010.2
20260510053105 41 121 0.0 0.0 0.00 0.36 0.00 100 1010.2
20260510053005 41 121 0.0 0.0 0.00 0.36 0.00 100 1010.2
20260510052903 41 121 0.0 0.0 0.00 0.36 0.00 100 1010.2
20260510052802 41 121 0.0 0.0 0.00 0.36 0.00 100 1010.2
20260510052704 41 121 0.0 0.0 0.00 0.36 0.00 100 1010.2
20260510052602 41 121 0.0 0.0 0.00 0.36 0.00 100 1010.2
20260510052504 41 121 0.0 0.0 0.00 0.36 0.00 100 1010.2
20260510052418 41 121 0.0 0.0 0.00 0.36 0.00 100 1010.2
20260510052358 41 121 0.0 0.0 0.00 0.36 0.00 100 1010.2
20260510052204 41 121 0.0 0.0 0.00 0.36 0.00 100 1010.2
20260510052138 41 121 0.0 0.0 0.00 0.36 0.00 100 1010.0
20260510052003 41 121 0.0 0.0 0.00 0.36 0.00 100 1010.2
20260510051902 41 121 0.0 0.0 0.00 0.36 0.00 100 1010.2
20260510051802 41 121 0.0 0.0 0.00 0.36 0.00 100 1010.2
20260510051700 41 121 0.0 0.0 0.00 0.36 0.00 100 1010.2
20260510051601 41 121 0.0 0.0 0.00 0.36 0.00 100 1010.2
20260510051457 41 121 0.0 0.0 0.00 0.36 0.00 100 1010.0
20260510051256 41 121 0.0 0.0 0.00 0.36 0.00 100 1010.0
20260510051156 41 121 0.0 0.0 0.00 0.36 0.00 100 1010.0
20260510051058 41 121 0.0 0.0 0.00 0.36 0.00 100 1010.0
20260510050957 41 121 0.0 0.0 0.00 0.36 0.00 100 1010.0
20260510050858 41 121 0.0 0.0 0.00 0.36 0.00 100 1010.0
20260510050756 41 121 0.0 0.0 0.00 0.36 0.00 100 1010.2
20260510050657 41 121 0.0 0.0 0.00 0.36 0.00 100 1010.3
20260510050556 41 121 0.0 0.0 0.00 0.36 0.00 100 1010.2
20260510050457 41 121 0.0 0.0 0.00 0.36 0.00 100 1010.2
20260510050357 41 121 0.0 0.0 0.00 0.36 0.00 100 1010.2
20260510050256 41 121 0.0 0.0 0.00 0.36 0.00 100 1010.2
20260510050156 41 121 0.0 0.0 0.00 0.36 0.00 100 1010.2
20260510050056 41 121 0.0 0.0 0.00 0.36 0.00 100 1010.2
20260510045957 41 121 0.0 0.0 0.00 0.36 0.00 100 1010.2
20260510045856 41 121 0.0 0.0 0.00 0.36 0.00 100 1010.0
20260510045756 41 121 0.0 0.0 0.00 0.36 0.00 100 1010.2
20260510045656 41 121 0.0 0.0 0.00 0.36 0.00 100 1010.2
20260510045555 41 121 0.0 0.0 0.00 0.36 0.00 100 1010.0
20260510045458 41 121 0.0 0.0 0.00 0.36 0.00 100 1010.0
20260510045356 41 121 0.0 0.0 0.00 0.36 0.00 100 1010.0
20260510045257 41 121 0.0 0.0 0.00 0.36 0.00 100 1010.0
20260510045128 41 121 0.0 0.0 0.00 0.36 0.00 100 1010.2
20260510044957 41 121 0.0 0.0 0.00 0.36 0.00 100 1010.2
20260510044854 41 121 0.0 0.0 0.00 0.36 0.00 100 1010.2
20260510044752 41 121 0.0 0.0 0.00 0.36 0.00 100 1010.2
20260510044653 41 121 0.0 0.0 0.00 0.36 0.00 100 1010.2
20260510044553 41 121 0.0 0.0 0.00 0.36 0.00 100 1010.3
20260510044452 41 121 0.0 0.0 0.01 0.36 0.00 100 1010.3
20260510044403 41 121 0.0 0.0 0.01 0.36 0.00 100 1010.2
20260510044344 41 121 0.0 0.0 0.01 0.36 0.00 100 1010.3
20260510044148 41 121 0.0 0.0 0.01 0.36 0.00 100 1010.3
20260510044127 41 121 0.0 0.0 0.01 0.36 0.00 100 1010.3
20260510043947 41 121 0.0 0.0 0.01 0.36 0.00 100 1010.3
20260510043848 41 121 0.0 0.0 0.01 0.36 0.00 100 1010.3
20260510043749 41 121 0.0 0.0 0.01 0.36 0.00 100 1010.3
20260510043649 41 121 0.0 0.0 0.01 0.36 0.00 100 1010.3
20260510043547 41 121 0.0 0.0 0.01 0.36 0.00 100 1010.3
20260510043449 41 121 0.0 0.0 0.01 0.36 0.00 100 1010.4
20260510043348 41 121 0.0 0.0 0.01 0.36 0.00 100 1010.4
20260510043247 41 121 0.0 0.0 0.01 0.36 0.00 100 1010.3
20260510043149 41 121 0.0 0.0 0.01 0.36 0.00 100 1010.4
20260510043049 41 121 0.0 0.0 0.01 0.36 0.00 100 1010.4
20260510042949 41 121 0.0 0.0 0.01 0.36 0.00 100 1010.3
20260510042848 41 121 0.0 0.0 0.01 0.36 0.00 100 1010.3
20260510042748 41 121 0.0 0.0 0.01 0.36 0.00 100 1010.4
20260510042648 41 121 0.0 0.0 0.01 0.36 0.00 100 1010.4
20260510042547 41 121 0.0 0.0 0.01 0.36 0.00 100 1010.3
20260510042448 41 121 0.0 0.0 0.01 0.36 0.00 100 1010.3
20260510042348 41 121 0.0 0.0 0.01 0.36 0.00 100 1010.3
20260510042248 41 121 0.0 0.0 0.01 0.36 0.00 100 1010.4
20260510042150 41 121 0.0 0.0 0.01 0.36 0.00 100 1010.3
20260510042048 41 121 0.0 0.0 0.01 0.36 0.00 100 1010.4
20260510041948 41 121 0.0 0.0 0.01 0.36 0.00 100 1010.3
20260510041849 41 121 0.0 0.0 0.01 0.36 0.00 100 1010.3
20260510041748 41 121 0.0 0.0 0.01 0.36 0.00 100 1010.4
20260510041650 41 121 0.0 0.0 0.01 0.36 0.00 100 1010.3
20260510041548 41 121 0.0 0.0 0.01 0.36 0.00 100 1010.4
20260510041448 41 121 0.0 0.0 0.01 0.36 0.00 100 1010.4
20260510041349 41 121 0.0 0.0 0.01 0.36 0.00 100 1010.4
20260510041249 41 121 0.0 0.0 0.01 0.36 0.00 100 1010.4
20260510041148 41 121 0.0 0.0 0.01 0.36 0.00 100 1010.3
20260510041048 41 121 0.0 0.0 0.01 0.36 0.00 100 1010.3
20260510040950 41 121 0.0 0.0 0.01 0.36 0.00 100 1010.3
20260510040849 41 121 0.0 0.0 0.01 0.36 0.00 100 1010.3
20260510040747 41 121 0.0 0.0 0.01 0.36 0.00 100 1010.3
20260510040643 41 121 0.0 0.0 0.01 0.36 0.00 100 1010.3
20260510040442 41 121 0.0 0.0 0.01 0.36 0.00 100 1010.3
20260510040345 41 121 0.0 0.0 0.01 0.36 0.00 100 1010.3
20260510040241 41 121 0.0 0.0 0.01 0.36 0.00 100 1010.2
20260510040140 41 121 0.0 0.0 0.01 0.36 0.00 100 1010.2
20260510040038 41 121 0.0 0.0 0.01 0.36 0.00 100 1010.2
20260510035939 41 121 0.0 0.0 0.01 0.36 0.36 100 1010.2
20260510035829 41 121 0.0 0.0 0.01 0.36 0.36 100 1010.2
20260510035728 41 121 0.0 0.0 0.01 0.36 0.36 100 1010.2
20260510035629 41 121 0.0 0.0 0.01 0.36 0.36 100 1010.2
20260510035526 41 121 0.0 0.0 0.01 0.36 0.36 100 1010.2
20260510035424 41 121 0.0 0.0 0.01 0.36 0.36 100 1010.3
20260510035317 41 121 0.0 0.0 0.01 0.36 0.36 100 1010.3
20260510035217 41 121 0.0 0.0 0.01 0.36 0.36 100 1010.2
20260510035117 41 121 0.0 0.0 0.01 0.36 0.36 100 1010.2
20260510035017 41 121 0.0 0.0 0.01 0.36 0.36 100 1010.2
20260510034919 41 121 0.0 0.0 0.01 0.36 0.36 100 1010.3
20260510034815 41 121 0.0 0.0 0.01 0.36 0.36 100 1010.3
20260510034716 41 121 0.0 0.0 0.01 0.36 0.36 100 1010.4
20260510034615 41 121 0.0 0.0 0.01 0.36 0.36 100 1010.4
20260510034413 41 121 0.0 0.9 0.00 0.35 0.35 100 1010.4
20260510034336 41 121 0.0 0.9 0.00 0.35 0.35 100 1010.4
20260510034205 41 121 0.0 0.9 0.00 0.35 0.35 100 1010.4
20260510034129 41 121 0.0 0.9 0.00 0.35 0.35 100 1010.4
20260510034109 41 121 0.0 0.9 0.00 0.35 0.35 100 1010.4
20260510033903 41 121 0.0 0.9 0.00 0.35 0.35 100 1010.4
20260510033803 41 121 0.0 0.9 0.00 0.35 0.35 100 1010.3
20260510033659 41 121 0.0 0.9 0.00 0.35 0.35 100 1010.4
20260510033601 41 121 0.0 0.9 0.00 0.35 0.35 100 1010.4
20260510033459 41 121 0.0 0.9 0.00 0.35 0.35 100 1010.4
20260510033357 41 121 0.0 0.0 0.00 0.35 0.35 100 1010.4
20260510033255 41 121 0.0 0.0 0.00 0.35 0.35 100 1010.4
20260510033154 41 121 0.0 0.0 0.00 0.35 0.35 100 1010.4
20260510033054 41 121 0.0 0.0 0.00 0.35 0.35 100 1010.3
20260510032952 41 121 0.0 0.0 0.00 0.35 0.35 100 1010.4
20260510032850 41 121 0.0 0.0 0.00 0.35 0.35 100 1010.4
20260510032739 41 121 0.0 0.0 0.00 0.35 0.35 100 1010.4
20260510032640 41 121 0.0 0.9 0.00 0.35 0.35 100 1010.4
20260510032540 41 121 0.0 0.9 0.00 0.35 0.35 100 1010.5
20260510032438 41 121 0.0 0.9 0.00 0.35 0.35 100 1010.5
20260510032337 41 121 0.0 0.9 0.00 0.35 0.35 100 1010.4
20260510032235 41 121 0.0 0.9 0.00 0.35 0.35 100 1010.4
20260510032135 41 121 0.0 0.9 0.00 0.35 0.35 100 1010.4
20260510032035 41 121 0.0 0.9 0.00 0.35 0.35 100 1010.4
20260510031933 41 121 0.0 0.9 0.00 0.35 0.35 100 1010.5
20260510031830 41 121 0.0 0.9 0.00 0.35 0.35 100 1010.5
20260510031728 41 121 0.0 0.9 0.00 0.35 0.35 100 1010.5
20260510031628 41 159 0.0 0.9 0.00 0.35 0.35 100 1010.5
20260510031527 41 159 0.0 0.9 0.00 0.35 0.35 100 1010.4
20260510031427 41 159 0.0 0.9 0.00 0.35 0.35 100 1010.4
20260510031324 41 159 0.0 0.9 0.00 0.35 0.35 100 1010.4
20260510031213 41 159 0.0 0.9 0.00 0.35 0.35 100 1010.5
20260510031113 41 159 0.0 0.9 0.00 0.35 0.35 100 1010.5
20260510031015 41 159 0.0 0.9 0.00 0.35 0.35 100 1010.5
20260510030914 41 159 0.0 0.0 0.00 0.35 0.35 100 1010.4
20260510030814 41 159 0.0 0.0 0.00 0.35 0.35 100 1010.4
20260510030713 41 159 0.0 0.0 0.00 0.35 0.35 100 1010.5
20260510030611 41 159 0.0 0.0 0.00 0.35 0.35 100 1010.5
20260510030513 41 159 0.0 0.9 0.00 0.35 0.35 100 1010.6
20260510030409 41 159 0.0 0.9 0.00 0.35 0.35 100 1010.6
20260510030309 41 159 0.0 1.7 0.00 0.35 0.35 100 1010.7
20260510030205 41 159 0.0 1.7 0.00 0.35 0.35 100 1010.7
20260510030104 41 159 0.0 1.7 0.00 0.35 0.35 100 1010.8
20260510030004 41 159 0.0 1.7 0.00 0.35 0.35 100 1010.8
20260510025905 41 159 0.0 1.7 0.00 0.35 0.35 100 1010.8
20260510025802 41 159 0.0 1.7 0.00 0.35 0.35 100 1010.8
20260510025651 41 159 0.0 1.7 0.00 0.35 0.35 100 1010.8
20260510025552 41 159 0.0 1.7 0.00 0.35 0.35 100 1010.7
20260510025350 41 159 0.0 1.7 0.00 0.35 0.35 100 1010.7
20260510025248 41 154 0.0 0.0 0.00 0.35 0.35 100 1010.6
20260510025148 41 154 0.0 0.0 0.00 0.35 0.35 100 1010.7
20260510025046 41 154 0.0 0.0 0.00 0.35 0.35 100 1010.7
20260510024844 41 154 0.0 0.0 0.00 0.35 0.35 100 1010.7
20260510024742 41 154 0.0 0.0 0.00 0.35 0.35 100 1010.7
20260510024641 41 154 0.0 0.0 0.00 0.35 0.35 100 1010.7
20260510024605 41 154 0.0 0.0 0.00 0.35 0.35 100 1010.7
20260510024439 41 154 0.0 0.0 0.00 0.35 0.35 100 1010.8
20260510024339 41 154 0.0 0.9 0.00 0.35 0.35 100 1010.8
20260510024236 41 154 0.0 0.9 0.00 0.35 0.35 100 1010.8
20260510024130 41 154 0.0 2.6 0.00 0.35 0.35 100 1010.8
20260510024054 41 154 0.0 2.6 0.00 0.35 0.35 100 1010.8
20260510023930 41 154 0.0 2.6 0.00 0.35 0.35 100 1010.8
20260510023828 41 154 0.0 2.6 0.00 0.35 0.35 100 1010.8
20260510023726 41 154 0.0 2.6 0.00 0.35 0.35 100 1010.8
20260510023627 41 154 0.0 2.6 0.00 0.35 0.35 100 1010.8
20260510023524 41 154 0.0 4.3 0.00 0.35 0.35 100 1010.9
20260510023423 41 154 0.0 4.3 0.00 0.35 0.35 100 1010.9
20260510023321 41 154 0.0 4.3 0.00 0.35 0.35 100 1010.9
20260510023221 41 123 0.0 4.3 0.00 0.35 0.35 100 1010.9
20260510023119 41 159 0.0 4.3 0.00 0.35 0.35 100 1010.9
20260510023019 41 159 0.0 4.3 0.00 0.35 0.35 100 1010.9
20260510022915 41 159 0.0 4.3 0.00 0.35 0.35 100 1010.9
20260510022817 41 176 0.0 4.3 0.00 0.35 0.35 100 1010.9
20260510022715 41 175 0.0 4.3 0.00 0.35 0.35 100 1010.9
20260510022607 41 182 0.0 3.5 0.00 0.35 0.35 100 1010.8
20260510022508 41 115 0.0 3.5 0.00 0.35 0.35 100 1010.9
20260510022409 41 115 0.0 3.5 0.00 0.35 0.35 100 1010.9
20260510022306 41 115 0.0 3.5 0.00 0.35 0.35 100 1010.9
20260510022104 41 151 0.0 3.5 0.00 0.35 0.35 100 1011.0
20260510022043 41 151 0.0 3.5 0.00 0.35 0.35 100 1010.9
20260510021901 41 151 0.0 3.5 0.00 0.35 0.35 100 1011.0
20260510021800 41 151 0.0 3.5 0.00 0.35 0.35 100 1010.9
20260510021701 41 151 0.0 3.5 0.00 0.35 0.35 100 1010.9
20260510021558 41 151 0.0 3.5 0.00 0.35 0.35 100 1010.9
20260510021456 41 151 0.0 3.5 0.00 0.35 0.35 100 1011.0
20260510021357 41 151 0.0 3.5 0.00 0.35 0.35 100 1011.0
20260510021253 41 149 0.0 3.5 0.00 0.35 0.35 100 1011.0
20260510021154 41 149 0.0 3.5 0.00 0.35 0.35 100 1011.0
20260510021055 41 149 0.0 3.5 0.00 0.35 0.35 100 1011.0
20260510020951 41 149 0.0 3.5 0.00 0.35 0.35 100 1011.0
20260510020853 41 149 0.0 5.2 0.00 0.35 0.35 100 1011.0
20260510020749 41 149 0.0 5.2 0.00 0.35 0.35 100 1011.1
20260510020651 41 141 0.0 5.2 0.00 0.35 0.35 100 1011.1
20260510020556 41 171 0.0 5.2 0.00 0.35 0.35 100 1011.1
20260510020537 41 171 0.0 5.2 0.00 0.35 0.35 100 1011.1
20260510020350 41 146 0.0 5.2 0.00 0.35 0.35 100 1011.1
20260510020249 41 146 0.0 5.2 0.00 0.35 0.35 100 1011.2
20260510020150 41 146 0.0 5.2 0.00 0.35 0.35 100 1011.2
20260510020047 41 153 0.0 5.2 0.00 0.35 0.35 100 1011.2
20260510015948 41 122 0.0 4.3 0.00 0.35 0.35 100 1011.2
20260510015847 41 132 0.0 2.6 0.00 0.35 0.35 100 1011.2
20260510015747 41 132 0.0 2.6 0.00 0.35 0.35 100 1011.1
20260510015649 41 132 0.0 2.6 0.00 0.35 0.35 100 1011.1
20260510015545 41 132 0.0 2.6 0.00 0.35 0.35 100 1011.1
20260510015446 41 126 0.0 1.7 0.00 0.35 0.35 100 1011.0
20260510015346 41 137 0.0 1.7 0.00 0.35 0.35 100 1011.0
20260510015246 41 137 0.0 1.7 0.00 0.35 0.35 100 1011.0
20260510015146 41 137 0.0 1.7 0.00 0.35 0.35 100 1011.1
20260510015047 41 137 0.0 1.7 0.00 0.35 0.35 100 1011.0
20260510014845 41 136 0.0 1.7 0.00 0.35 0.35 100 1011.1
20260510014745 41 136 0.0 1.7 0.00 0.35 0.35 100 1011.1
20260510014645 41 136 0.0 1.7 0.00 0.35 0.35 100 1011.0
20260510014545 41 136 0.0 1.7 0.00 0.35 0.35 100 1011.1
20260510014347 41 136 0.0 2.6 0.00 0.35 0.35 100 1011.0
20260510014245 41 136 0.9 3.5 0.00 0.35 0.35 100 1011.1
20260510014146 41 136 0.9 3.5 0.00 0.35 0.35 100 1011.1
20260510014045 41 136 0.9 3.5 0.00 0.35 0.35 100 1011.1
20260510013945 41 136 0.9 3.5 0.00 0.35 0.35 100 1011.1
20260510013845 41 136 0.9 3.5 0.00 0.35 0.35 99 1011.1
20260510013812 41 136 0.9 3.5 0.00 0.35 0.35 100 1011.1
20260510013645 41 136 0.9 3.5 0.00 0.35 0.35 99 1011.1
20260510013557 41 136 0.9 3.5 0.00 0.35 0.35 99 1011.1
20260510013537 41 136 0.0 3.5 0.00 0.35 0.35 99 1011.1
20260510013345 41 135 0.0 3.5 0.00 0.35 0.35 99 1011.2
20260510013245 41 212 0.0 3.5 0.00 0.35 0.35 99 1011.2
20260510013146 41 212 0.0 3.5 0.00 0.35 0.35 99 1011.2
20260510013043 41 212 0.0 3.5 0.00 0.35 0.35 99 1011.2
20260510012843 41 212 0.0 3.5 0.00 0.35 0.35 99 1011.2
20260510012741 41 212 0.0 3.5 0.00 0.35 0.35 99 1011.3
20260510012643 41 202 0.0 0.0 0.00 0.35 0.35 99 1011.2
20260510012541 41 117 0.0 0.0 0.00 0.35 0.35 99 1011.2
20260510012337 41 117 0.0 0.0 0.00 0.35 0.35 99 1011.2
20260510012237 41 117 0.0 0.0 0.00 0.35 0.35 99 1011.2
20260510012139 41 117 0.0 0.0 0.00 0.35 0.35 99 1011.2
20260510012039 41 117 0.0 0.0 0.00 0.35 0.35 99 1011.2
20260510011839 41 117 0.0 0.0 0.00 0.35 0.35 99 1011.3
20260510011737 41 117 0.0 0.0 0.00 0.35 0.35 99 1011.3
20260510011637 41 117 0.0 0.0 0.00 0.35 0.35 100 1011.2
20260510011539 41 117 0.0 0.0 0.00 0.35 0.35 99 1011.3
20260510011337 41 117 0.0 0.0 0.00 0.35 0.35 99 1011.2
20260510011237 41 117 0.0 0.0 0.00 0.35 0.35 99 1011.2
20260510011137 41 117 0.0 0.0 0.00 0.35 0.35 99 1011.2
20260510011038 41 117 0.0 0.0 0.00 0.35 0.35 99 1011.2
20260510010837 41 117 0.0 0.0 0.00 0.35 0.35 99 1011.2
20260510010737 41 117 0.0 0.0 0.00 0.35 0.35 99 1011.1
20260510010637 41 117 0.0 0.0 0.00 0.35 0.35 99 1011.2
20260510010537 41 117 0.0 0.0 0.00 0.35 0.35 99 1011.1
20260510010339 41 117 0.0 0.0 0.00 0.35 0.35 99 1011.2
20260510010237 41 117 0.0 0.0 0.00 0.35 0.35 99 1011.2
20260510010139 41 117 0.0 0.0 0.00 0.35 0.35 99 1011.2
20260510010038 41 117 0.0 0.0 0.00 0.35 0.35 99 1011.2
20260510005839 41 117 0.0 0.0 0.00 0.35 0.35 99 1011.2
20260510005738 41 117 0.0 0.0 0.00 0.35 0.35 99 1011.2
20260510005638 41 117 0.0 0.0 0.00 0.35 0.35 99 1011.2
20260510005537 41 117 0.0 0.0 0.00 0.35 0.35 99 1011.1
20260510005338 41 117 0.0 0.0 0.00 0.35 0.35 99 1011.2
20260510005237 41 117 0.0 0.0 0.00 0.35 0.35 99 1011.1
20260510005137 41 117 0.0 0.0 0.00 0.35 0.35 99 1011.2
20260510005036 41 117 0.0 0.0 0.00 0.35 0.35 99 1011.1
20260510004837 41 117 0.0 1.7 0.00 0.35 0.35 99 1011.1
20260510004738 41 117 0.0 1.7 0.00 0.35 0.35 99 1011.1
20260510004638 41 117 0.0 1.7 0.00 0.35 0.35 99 1011.1
20260510004539 41 117 0.0 1.7 0.00 0.35 0.35 99 1011.1
20260510004333 41 117 0.9 7.0 0.00 0.35 0.35 99 1011.1
20260510004232 41 117 0.9 7.0 0.00 0.35 0.35 99 1010.9
20260510004133 41 117 0.9 7.0 0.00 0.35 0.35 99 1011.0
20260510004032 41 117 0.9 7.0 0.00 0.35 0.35 99 1011.0
20260510003822 41 115 0.9 7.0 0.00 0.35 0.35 99 1011.0
20260510003723 41 117 0.9 7.0 0.00 0.35 0.35 99 1011.0
20260510003623 41 115 0.9 7.0 0.00 0.35 0.35 99 1011.1
20260510003546 41 109 0.9 7.0 0.00 0.35 0.35 99 1011.0
20260510003524 41 145 0.9 5.2 0.00 0.35 0.35 99 1011.0
20260510003315 41 167 0.9 5.2 0.00 0.35 0.35 99 1011.0
20260510003214 41 137 0.9 5.2 0.01 0.35 0.35 99 1011.0
20260510003115 41 171 0.9 5.2 0.01 0.35 0.35 99 1011.0
20260510003016 41 131 0.9 4.3 0.01 0.35 0.35 99 1010.9
20260510002810 41 159 0.9 4.3 0.01 0.35 0.35 99 1010.8
20260510002708 41 153 0.9 4.3 0.01 0.35 0.35 99 1010.8
20260510002609 41 134 0.9 4.3 0.01 0.35 0.35 99 1010.8
20260510002508 41 128 0.9 4.3 0.01 0.35 0.35 99 1010.7
20260510002256 41 145 0.9 4.3 0.01 0.35 0.35 99 1010.7
20260510002153 41 145 0.9 4.3 0.01 0.35 0.35 99 1010.7
20260510002055 41 159 0.9 4.3 0.01 0.35 0.35 99 1010.7
20260510001953 41 154 0.9 4.3 0.01 0.35 0.35 99 1010.6
20260510001747 41 162 0.9 3.5 0.01 0.35 0.35 99 1010.6
20260510001647 41 155 0.9 3.5 0.01 0.35 0.35 99 1010.6
20260510001549 41 133 0.0 3.5 0.01 0.35 0.35 99 1010.7
20260510001448 41 106 0.0 2.6 0.01 0.35 0.35 99 1010.6
20260510001242 41 90 0.0 2.6 0.01 0.35 0.35 99 1010.6
20260510001142 41 88 0.0 2.6 0.01 0.35 0.35 99 1010.6
20260510001042 41 120 0.0 2.6 0.01 0.35 0.35 99 1010.6
20260510000941 41 157 0.0 2.6 0.01 0.35 0.35 99 1010.6
20260510000736 41 103 0.0 0.0 0.01 0.35 0.35 99 1010.6
20260510000634 41 103 0.0 0.0 0.01 0.35 0.35 99 1010.6
20260510000536 41 103 0.0 0.0 0.01 0.35 0.35 99 1010.5
20260510000457 41 103 0.0 0.0 0.01 0.35 0.35 99 1010.5
20260510000436 41 103 0.0 0.0 0.01 0.35 0.35 99 1010.5
20260510000228 41 103 0.0 0.0 0.01 0.35 0.35 99 1010.5
20260510000124 41 103 0.0 0.0 0.01 0.35 0.35 99 1010.5
20260510000026 41 103 0.0 0.0 0.01 0.35 0.35 99 1010.5
20260509235926 41 103 0.0 0.0 0.01 0.35 0.35 99 1010.5
20260509235723 41 103 0.0 1.7 0.01 0.35 0.35 99 1010.4
20260509235622 41 103 0.0 1.7 0.01 0.35 0.35 99 1010.4
20260509235523 41 103 0.0 1.7 0.01 0.35 0.35 99 1010.4
20260509235423 41 103 0.0 1.7 0.01 0.35 0.35 99 1010.4
20260509235210 41 103 0.0 1.7 0.01 0.35 0.35 99 1010.5
20260509235109 41 103 0.0 1.7 0.01 0.35 0.35 99 1010.5
20260509235011 41 103 0.0 1.7 0.01 0.35 0.35 99 1010.5
20260509234908 41 103 0.0 1.7 0.01 0.35 0.35 99 1010.6
20260509234659 41 110 0.0 3.5 0.01 0.35 0.35 99 1010.5
20260509234600 41 110 0.0 3.5 0.01 0.35 0.35 99 1010.6
20260509234459 41 110 0.0 3.5 0.01 0.35 0.35 99 1010.5
20260509234358 41 110 0.0 3.5 0.01 0.35 0.35 99 1010.6
20260509234159 41 110 0.0 3.5 0.01 0.35 0.35 99 1010.6
20260509234058 41 110 0.0 3.5 0.01 0.35 0.35 99 1010.6
20260509233957 41 110 0.0 3.5 0.01 0.35 0.35 99 1010.6
20260509233856 41 110 0.0 3.5 0.01 0.35 0.35 99 1010.6
20260509233647 41 109 0.0 1.7 0.01 0.35 0.35 99 1010.6
20260509233548 41 109 0.0 1.7 0.02 0.35 0.35 99 1010.6
20260509233445 41 109 0.0 1.7 0.02 0.35 0.35 99 1010.6
20260509233409 41 109 0.0 1.7 0.02 0.35 0.35 99 1010.5
20260509233348 41 109 0.0 1.7 0.02 0.35 0.35 99 1010.6
20260509233141 41 109 0.0 1.7 0.01 0.34 0.35 99 1010.6
20260509233042 41 109 0.0 1.7 0.01 0.34 0.34 99 1010.6
20260509232941 41 109 0.9 6.1 0.01 0.34 0.34 99 1010.5
20260509232840 41 109 0.9 6.1 0.01 0.34 0.34 99 1010.5
20260509232634 41 109 0.9 6.1 0.01 0.34 0.34 99 1010.5
20260509232536 41 109 0.9 6.1 0.01 0.34 0.34 99 1010.5
20260509232434 41 109 0.9 6.1 0.01 0.34 0.34 99 1010.5
20260509232357 41 105 0.9 6.1 0.01 0.34 0.34 99 1010.5
20260509232336 41 115 0.9 6.1 0.01 0.34 0.34 99 1010.5
20260509232121 41 113 0.9 6.1 0.01 0.34 0.34 99 1010.5
20260509232022 41 113 0.9 6.1 0.01 0.34 0.34 99 1010.5
20260509231918 41 106 0.9 5.2 0.02 0.34 0.34 99 1010.6
20260509231820 41 79 0.9 5.2 0.02 0.34 0.34 99 1010.5
20260509231611 41 78 0.0 5.2 0.02 0.34 0.34 99 1010.5
20260509231511 41 113 0.9 5.2 0.02 0.34 0.34 99 1010.5
20260509231412 41 113 0.9 5.2 0.02 0.34 0.34 99 1010.5
20260509231336 41 113 0.9 5.2 0.02 0.34 0.34 99 1010.5
20260509231316 41 113 0.9 5.2 0.02 0.34 0.34 99 1010.5